Observation data for Rotan on 03/23/2019      Previous  Date  Next       Current Mesonet Observations  Soil Data  Daily Summary Page  Observations in Plain Language
KRO1 230500Z 17013KT 16/11 A2997 RMK A01 T01640110  RH  070%=      5-min Rain = 0
KRO1 230501Z 17013KT 17/11 A2997 RMK A01 T01650110  RH  070%=      5-min Rain = 0
KRO1 230502Z 17014KT 17/11 A2997 RMK A01 T01650110  RH  070%=      5-min Rain = 0
KRO1 230503Z 17014KT 17/11 A2997 RMK A01 T01650110  RH  070%=      5-min Rain = 0
KRO1 230504Z 17014KT 17/11 A2997 RMK A01 T01650110  RH  070%=      5-min Rain = 0
KRO1 230505Z 17014KT 16/11 A2997 RMK A01 T01640110  RH  070%=      5-min Rain = 0
KRO1 230506Z 17015KT 16/11 A2997 RMK A01 T01640111  RH  070%=      5-min Rain = 0
KRO1 230507Z 17014KT 17/11 A2997 RMK A01 T01650111  RH  070%=      5-min Rain = 0
KRO1 230508Z 17013KT 17/11 A2997 RMK A01 T01650111  RH  070%=      5-min Rain = 0
KRO1 230509Z 17013KT 17/11 A2997 RMK A01 T01650110  RH  070%=      5-min Rain = 0
KRO1 230510Z 17013KT 16/11 A2997 RMK A01 T01640111  RH  070%=      5-min Rain = 0
KRO1 230511Z 17014KT 16/11 A2997 RMK A01 T01640111  RH  071%=      5-min Rain = 0
KRO1 230512Z 17013KT 16/11 A2997 RMK A01 T01640111  RH  071%=      5-min Rain = 0
KRO1 230513Z 17013KT 17/11 A2997 RMK A01 T01650111  RH  071%=      5-min Rain = 0
KRO1 230514Z 17013KT 16/11 A2997 RMK A01 T01640111  RH  071%=      5-min Rain = 0
KRO1 230515Z 17014KT 16/11 A2997 RMK A01 T01640111  RH  071%=      5-min Rain = 0
KRO1 230516Z 17013KT 16/11 A2997 RMK A01 T01640111  RH  071%=      5-min Rain = 0
KRO1 230517Z 17013KT 16/11 A2997 RMK A01 T01640111  RH  071%=      5-min Rain = 0
KRO1 230518Z 17013KT 16/11 A2997 RMK A01 T01640111  RH  071%=      5-min Rain = 0
KRO1 230519Z 17013KT 16/11 A2997 RMK A01 T01640111  RH  071%=      5-min Rain = 0
KRO1 230520Z 17014KT 16/11 A2997 RMK A01 T01630112  RH  071%=      5-min Rain = 0
KRO1 230521Z 17013KT 16/11 A2997 RMK A01 T01630111  RH  071%=      5-min Rain = 0
KRO1 230522Z 17013KT 16/11 A2997 RMK A01 T01640111  RH  071%=      5-min Rain = 0
KRO1 230523Z 17013KT 16/11 A2997 RMK A01 T01630111  RH  071%=      5-min Rain = 0
KRO1 230524Z 17012KT 16/11 A2997 RMK A01 T01630111  RH  071%=      5-min Rain = 0
KRO1 230525Z 17012KT 16/11 A2997 RMK A01 T01630111  RH  071%=      5-min Rain = 0
KRO1 230526Z 17012KT 16/11 A2997 RMK A01 T01630112  RH  071%=      5-min Rain = 0
KRO1 230527Z 18012KT 16/11 A2997 RMK A01 T01630112  RH  072%=      5-min Rain = 0
KRO1 230528Z 18012KT 16/11 A2997 RMK A01 T01630112  RH  072%=      5-min Rain = 0
KRO1 230529Z 18012KT 16/11 A2997 RMK A01 T01630112  RH  072%=      5-min Rain = 0
KRO1 230530Z 18012KT 16/11 A2997 RMK A01 T01630112  RH  072%=      5-min Rain = 0
KRO1 230531Z 18012KT 16/11 A2997 RMK A01 T01620112  RH  072%=      5-min Rain = 0
KRO1 230532Z 18012KT 16/11 A2997 RMK A01 T01620112  RH  072%=      5-min Rain = 0
KRO1 230533Z 18012KT 16/11 A2997 RMK A01 T01620112  RH  072%=      5-min Rain = 0
KRO1 230534Z 18012KT 16/11 A2997 RMK A01 T01620112  RH  072%=      5-min Rain = 0
KRO1 230535Z 18011KT 16/11 A2997 RMK A01 T01620112  RH  072%=      5-min Rain = 0
KRO1 230536Z 18011KT 16/11 A2997 RMK A01 T01610112  RH  072%=      5-min Rain = 0
KRO1 230537Z 18011KT 16/11 A2997 RMK A01 T01610112  RH  073%=      5-min Rain = 0
KRO1 230538Z 18011KT 16/11 A2997 RMK A01 T01600112  RH  073%=      5-min Rain = 0
KRO1 230539Z 18011KT 16/11 A2997 RMK A01 T01600112  RH  073%=      5-min Rain = 0
KRO1 230540Z 18012KT 16/11 A2997 RMK A01 T01600112  RH  073%=      5-min Rain = 0
KRO1 230541Z 18012KT 16/11 A2997 RMK A01 T01600112  RH  073%=      5-min Rain = 0
KRO1 230542Z 18012KT 16/11 A2997 RMK A01 T01600112  RH  073%=      5-min Rain = 0
KRO1 230543Z 18012KT 16/11 A2997 RMK A01 T01600112  RH  073%=      5-min Rain = 0
KRO1 230544Z 18012KT 16/11 A2997 RMK A01 T01600112  RH  073%=      5-min Rain = 0
KRO1 230545Z 18012KT 16/11 A2997 RMK A01 T01600112  RH  073%=      5-min Rain = 0
KRO1 230546Z 18013KT 16/11 A2997 RMK A01 T01600112  RH  073%=      5-min Rain = 0
KRO1 230547Z 18014KT 16/11 A2997 RMK A01 T01600112  RH  073%=      5-min Rain = 0
KRO1 230548Z 18013KT 16/11 A2997 RMK A01 T01610112  RH  073%=      5-min Rain = 0
KRO1 230549Z 18013KT 16/11 A2997 RMK A01 T01610112  RH  073%=      5-min Rain = 0
KRO1 230550Z 18013KT 16/11 A2997 RMK A01 T01610112  RH  073%=      5-min Rain = 0
KRO1 230551Z 18014KT 16/11 A2997 RMK A01 T01610112  RH  073%=      5-min Rain = 0
KRO1 230552Z 18014KT 16/11 A2997 RMK A01 T01610112  RH  073%=      5-min Rain = 0
KRO1 230553Z 18013KT 16/11 A2997 RMK A01 T01610112  RH  073%=      5-min Rain = 0
KRO1 230554Z 18013KT 16/11 A2997 RMK A01 T01620113  RH  073%=      5-min Rain = 0
KRO1 230555Z 18013KT 16/11 A2997 RMK A01 T01610113  RH  073%=      5-min Rain = 0
KRO1 230556Z 18013KT 16/11 A2997 RMK A01 T01610112  RH  073%=      5-min Rain = 0
KRO1 230557Z 18014KT 16/11 A2997 RMK A01 T01610113  RH  073%=      5-min Rain = 0
KRO1 230558Z 18013KT 16/11 A2997 RMK A01 T01610113  RH  073%=      5-min Rain = 0
KRO1 230559Z 18014KT 16/11 A2997 RMK A01 T01610113  RH  073%=      5-min Rain = 0
KRO1 230600Z 18014KT 16/11 A2997 RMK A01 T01610113  RH  073%=      5-min Rain = 0
KRO1 230601Z 18015KT 16/11 A2997 RMK A01 T01610113  RH  073%=      5-min Rain = 0
KRO1 230602Z 18013KT 16/11 A2997 RMK A01 T01610113  RH  073%=      5-min Rain = 0
KRO1 230603Z 18015KT 16/11 A2997 RMK A01 T01610113  RH  073%=      5-min Rain = 0
KRO1 230604Z 18013KT 16/11 A2997 RMK A01 T01620113  RH  073%=      5-min Rain = 0
KRO1 230605Z 18014KT 16/11 A2997 RMK A01 T01620113  RH  073%=      5-min Rain = 0
KRO1 230606Z 18014KT 16/11 A2997 RMK A01 T01610113  RH  073%=      5-min Rain = 0
KRO1 230607Z 18013KT 16/11 A2997 RMK A01 T01610113  RH  073%=      5-min Rain = 0
KRO1 230608Z 18013KT 16/11 A2997 RMK A01 T01610113  RH  073%=      5-min Rain = 0
KRO1 230609Z 18013KT 16/11 A2997 RMK A01 T01610113  RH  073%=      5-min Rain = 0
KRO1 230610Z 18014KT 16/11 A2997 RMK A01 T01600113  RH  074%=      5-min Rain = 0
KRO1 230611Z 18013KT 16/11 A2997 RMK A01 T01600113  RH  074%=      5-min Rain = 0
KRO1 230612Z 18014KT 16/11 A2997 RMK A01 T01600113  RH  074%=      5-min Rain = 0
KRO1 230613Z 18013KT 16/11 A2997 RMK A01 T01590113  RH  074%=      5-min Rain = 0
KRO1 230614Z 18014KT 16/11 A2997 RMK A01 T01590113  RH  074%=      5-min Rain = 0
KRO1 230615Z 18014KT 16/11 A2997 RMK A01 T01590113  RH  074%=      5-min Rain = 0
KRO1 230616Z 18014KT 16/11 A2997 RMK A01 T01600113  RH  074%=      5-min Rain = 0
KRO1 230617Z 18013KT 16/11 A2997 RMK A01 T01600113  RH  074%=      5-min Rain = 0
KRO1 230618Z 18013KT 16/11 A2997 RMK A01 T01600113  RH  074%=      5-min Rain = 0
KRO1 230619Z 18013KT 16/11 A2997 RMK A01 T01590113  RH  074%=      5-min Rain = 0
KRO1 230620Z 18013KT 16/11 A2997 RMK A01 T01590113  RH  074%=      5-min Rain = 0
KRO1 230621Z 18013KT 16/11 A2997 RMK A01 T01590113  RH  074%=      5-min Rain = 0
KRO1 230622Z 18014KT 16/11 A2997 RMK A01 T01590113  RH  074%=      5-min Rain = 0
KRO1 230623Z 18014KT 16/11 A2997 RMK A01 T01590113  RH  074%=      5-min Rain = 0
KRO1 230624Z 18014KT 16/11 A2997 RMK A01 T01590113  RH  074%=      5-min Rain = 0
KRO1 230625Z 18014KT 16/11 A2997 RMK A01 T01600114  RH  074%=      5-min Rain = 0
KRO1 230626Z 18014KT 16/11 A2996 RMK A01 T01600114  RH  074%=      5-min Rain = 0
KRO1 230627Z 18015KT 16/11 A2996 RMK A01 T01600114  RH  074%=      5-min Rain = 0
KRO1 230628Z 18015KT 16/11 A2996 RMK A01 T01610114  RH  074%=      5-min Rain = 0
KRO1 230629Z 18015KT 16/11 A2996 RMK A01 T01610113  RH  073%=      5-min Rain = 0
KRO1 230630Z 18014KT 16/11 A2996 RMK A01 T01610113  RH  073%=      5-min Rain = 0
KRO1 230631Z 18013KT 16/11 A2996 RMK A01 T01610114  RH  073%=      5-min Rain = 0
KRO1 230632Z 18014KT 16/11 A2996 RMK A01 T01610114  RH  074%=      5-min Rain = 0
KRO1 230633Z 18015KT 16/11 A2996 RMK A01 T01600114  RH  074%=      5-min Rain = 0
KRO1 230634Z 18015KT 16/11 A2996 RMK A01 T01600114  RH  074%=      5-min Rain = 0
KRO1 230635Z 18014KT 16/11 A2996 RMK A01 T01610114  RH  074%=      5-min Rain = 0
KRO1 230636Z 18014KT 16/11 A2996 RMK A01 T01610114  RH  073%=      5-min Rain = 0
KRO1 230637Z 18014KT 16/11 A2996 RMK A01 T01610114  RH  074%=      5-min Rain = 0
KRO1 230638Z 18014KT 16/11 A2996 RMK A01 T01610114  RH  074%=      5-min Rain = 0
KRO1 230639Z 18014KT 16/11 A2996 RMK A01 T01610114  RH  074%=      5-min Rain = 0
KRO1 230640Z 18014KT 16/11 A2996 RMK A01 T01600114  RH  074%=      5-min Rain = 0
KRO1 230641Z 18014KT 16/11 A2996 RMK A01 T01610114  RH  074%=      5-min Rain = 0
KRO1 230642Z 18013KT 16/11 A2996 RMK A01 T01610114  RH  074%=      5-min Rain = 0
KRO1 230643Z 18014KT 16/11 A2996 RMK A01 T01610114  RH  074%=      5-min Rain = 0
KRO1 230644Z 18013KT 16/11 A2996 RMK A01 T01610114  RH  074%=      5-min Rain = 0
KRO1 230645Z 18013KT 16/11 A2996 RMK A01 T01600114  RH  074%=      5-min Rain = 0
KRO1 230646Z 18013KT 16/11 A2996 RMK A01 T01600114  RH  074%=      5-min Rain = 0
KRO1 230647Z 18013KT 16/11 A2996 RMK A01 T01600114  RH  074%=      5-min Rain = 0
KRO1 230648Z 18014KT 16/11 A2996 RMK A01 T01600114  RH  074%=      5-min Rain = 0
KRO1 230649Z 18012KT 16/12 A2996 RMK A01 T01600115  RH  074%=      5-min Rain = 0
KRO1 230650Z 18014KT 16/11 A2996 RMK A01 T01600114  RH  074%=      5-min Rain = 0
KRO1 230651Z 18013KT 16/11 A2996 RMK A01 T01590114  RH  074%=      5-min Rain = 0
KRO1 230652Z 18012KT 16/11 A2996 RMK A01 T01600114  RH  074%=      5-min Rain = 0
KRO1 230653Z 18013KT 16/11 A2996 RMK A01 T01600114  RH  074%=      5-min Rain = 0
KRO1 230654Z 18013KT 16/11 A2996 RMK A01 T01590114  RH  075%=      5-min Rain = 0
KRO1 230655Z 18013KT 16/11 A2996 RMK A01 T01590114  RH  075%=      5-min Rain = 0
KRO1 230656Z 18012KT 16/11 A2996 RMK A01 T01590114  RH  074%=      5-min Rain = 0
KRO1 230657Z 18012KT 16/11 A2996 RMK A01 T01590114  RH  074%=      5-min Rain = 0
KRO1 230658Z 18012KT 16/11 A2996 RMK A01 T01590114  RH  075%=      5-min Rain = 0
KRO1 230659Z 18013KT 16/11 A2996 RMK A01 T01590114  RH  074%=      5-min Rain = 0
KRO1 230700Z 18013KT 16/11 A2996 RMK A01 T01600114  RH  074%=      5-min Rain = 0
KRO1 230701Z 18013KT 16/12 A2996 RMK A01 T01600115  RH  074%=      5-min Rain = 0
KRO1 230702Z 18013KT 16/11 A2996 RMK A01 T01600114  RH  074%=      5-min Rain = 0
KRO1 230703Z 18012KT 16/12 A2996 RMK A01 T01610115  RH  074%=      5-min Rain = 0
KRO1 230704Z 18013KT 16/12 A2996 RMK A01 T01600115  RH  074%=      5-min Rain = 0
KRO1 230705Z 18013KT 16/12 A2996 RMK A01 T01600115  RH  074%=      5-min Rain = 0
KRO1 230706Z 18013KT 16/12 A2996 RMK A01 T01600115  RH  074%=      5-min Rain = 0
KRO1 230707Z 18013KT 16/12 A2996 RMK A01 T01610115  RH  074%=      5-min Rain = 0
KRO1 230708Z 18012KT 16/12 A2996 RMK A01 T01610115  RH  074%=      5-min Rain = 0
KRO1 230709Z 18012KT 16/12 A2996 RMK A01 T01610115  RH  074%=      5-min Rain = 0
KRO1 230710Z 18012KT 16/12 A2996 RMK A01 T01600115  RH  074%=      5-min Rain = 0
KRO1 230711Z 18011KT 16/12 A2996 RMK A01 T01600115  RH  075%=      5-min Rain = 0
KRO1 230712Z 18011KT 16/12 A2996 RMK A01 T01590115  RH  075%=      5-min Rain = 0
KRO1 230713Z 18011KT 16/11 A2996 RMK A01 T01580114  RH  075%=      5-min Rain = 0
KRO1 230714Z 18012KT 16/11 A2996 RMK A01 T01580114  RH  075%=      5-min Rain = 0
KRO1 230715Z 18012KT 16/12 A2996 RMK A01 T01590115  RH  075%=      5-min Rain = 0
KRO1 230716Z 18011KT 16/11 A2996 RMK A01 T01590114  RH  075%=      5-min Rain = 0
KRO1 230717Z 18011KT 16/12 A2996 RMK A01 T01590115  RH  075%=      5-min Rain = 0
KRO1 230718Z 18012KT 16/11 A2996 RMK A01 T01580114  RH  075%=      5-min Rain = 0
KRO1 230719Z 18011KT 16/12 A2996 RMK A01 T01580115  RH  075%=      5-min Rain = 0
KRO1 230720Z 18011KT 16/11 A2996 RMK A01 T01580114  RH  075%=      5-min Rain = 0
KRO1 230721Z 18012KT 16/11 A2995 RMK A01 T01570114  RH  075%=      5-min Rain = 0
KRO1 230722Z 18011KT 16/11 A2995 RMK A01 T01570114  RH  076%=      5-min Rain = 0
KRO1 230723Z 18012KT 16/12 A2995 RMK A01 T01570115  RH  076%=      5-min Rain = 0
KRO1 230724Z 18011KT 16/12 A2995 RMK A01 T01580115  RH  076%=      5-min Rain = 0
KRO1 230725Z 18012KT 16/11 A2995 RMK A01 T01570114  RH  075%=      5-min Rain = 0
KRO1 230726Z 18012KT 16/11 A2995 RMK A01 T01570114  RH  076%=      5-min Rain = 0
KRO1 230727Z 18012KT 16/12 A2995 RMK A01 T01580115  RH  076%=      5-min Rain = 0
KRO1 230728Z 18013KT 16/11 A2995 RMK A01 T01570114  RH  076%=      5-min Rain = 0
KRO1 230729Z 18012KT 16/12 A2995 RMK A01 T01580115  RH  076%=      5-min Rain = 0
KRO1 230730Z 18012KT 16/12 A2995 RMK A01 T01570115  RH  076%=      5-min Rain = 0
KRO1 230731Z 18012KT 16/12 A2995 RMK A01 T01570115  RH  076%=      5-min Rain = 0
KRO1 230732Z 18013KT 16/12 A2995 RMK A01 T01570115  RH  076%=      5-min Rain = 0
KRO1 230733Z 18013KT 16/12 A2995 RMK A01 T01580115  RH  076%=      5-min Rain = 0
KRO1 230734Z 18013KT 16/12 A2995 RMK A01 T01580115  RH  076%=      5-min Rain = 0
KRO1 230735Z 18013KT 16/12 A2995 RMK A01 T01580115  RH  075%=      5-min Rain = 0
KRO1 230736Z 18013KT 16/12 A2995 RMK A01 T01590115  RH  075%=      5-min Rain = 0
KRO1 230737Z 18013KT 16/12 A2995 RMK A01 T01580115  RH  075%=      5-min Rain = 0
KRO1 230738Z 18013KT 16/12 A2995 RMK A01 T01580115  RH  075%=      5-min Rain = 0
KRO1 230739Z 18013KT 16/12 A2995 RMK A01 T01580115  RH  076%=      5-min Rain = 0
KRO1 230740Z 18014KT 16/12 A2995 RMK A01 T01590116  RH  076%=      5-min Rain = 0
KRO1 230741Z 18014KT 16/12 A2995 RMK A01 T01580116  RH  076%=      5-min Rain = 0
KRO1 230742Z 19013KT 16/12 A2995 RMK A01 T01580116  RH  076%=      5-min Rain = 0
KRO1 230743Z 19014KT 16/12 A2995 RMK A01 T01580116  RH  076%=      5-min Rain = 0
KRO1 230744Z 19014KT 16/12 A2995 RMK A01 T01580116  RH  076%=      5-min Rain = 0
KRO1 230745Z 19014KT 16/12 A2995 RMK A01 T01590116  RH  076%=      5-min Rain = 0
KRO1 230746Z 18014KT 16/12 A2995 RMK A01 T01590116  RH  076%=      5-min Rain = 0
KRO1 230747Z 18015KT 16/12 A2995 RMK A01 T01590116  RH  076%=      5-min Rain = 0
KRO1 230748Z 18016KT 16/12 A2995 RMK A01 T01590117  RH  076%=      5-min Rain = 0
KRO1 230749Z 19014KT 16/12 A2995 RMK A01 T01600116  RH  075%=      5-min Rain = 0
KRO1 230750Z 19016KT 16/12 A2995 RMK A01 T01600116  RH  075%=      5-min Rain = 0
KRO1 230751Z 18016KT 16/12 A2995 RMK A01 T01600116  RH  075%=      5-min Rain = 0
KRO1 230752Z 18015KT 16/12 A2995 RMK A01 T01600116  RH  075%=      5-min Rain = 0
KRO1 230753Z 19014KT 16/12 A2995 RMK A01 T01600116  RH  075%=      5-min Rain = 0
KRO1 230754Z 18014KT 16/12 A2995 RMK A01 T01590116  RH  076%=      5-min Rain = 0
KRO1 230755Z 19015KT 16/12 A2995 RMK A01 T01590117  RH  076%=      5-min Rain = 0
KRO1 230756Z 19016KT 16/12 A2995 RMK A01 T01590117  RH  076%=      5-min Rain = 0
KRO1 230757Z 19015KT 16/12 A2995 RMK A01 T01600117  RH  076%=      5-min Rain = 0
KRO1 230758Z 18015KT 16/12 A2995 RMK A01 T01600117  RH  076%=      5-min Rain = 0
KRO1 230759Z 18016KT 16/12 A2995 RMK A01 T01600117  RH  076%=      5-min Rain = 0
KRO1 230800Z 18015KT 16/12 A2995 RMK A01 T01600117  RH  076%=      5-min Rain = 0
KRO1 230801Z 19016KT 16/12 A2995 RMK A01 T01600117  RH  075%=      5-min Rain = 0
KRO1 230802Z 19016KT 16/12 A2995 RMK A01 T01610117  RH  075%=      5-min Rain = 0
KRO1 230803Z 19017KT 16/12 A2995 RMK A01 T01600117  RH  075%=      5-min Rain = 0
KRO1 230804Z 19015KT 16/12 A2995 RMK A01 T01610117  RH  075%=      5-min Rain = 0
KRO1 230805Z 19017KT 16/12 A2995 RMK A01 T01610117  RH  075%=      5-min Rain = 0
KRO1 230806Z 19016KT 16/12 A2995 RMK A01 T01610117  RH  075%=      5-min Rain = 0
KRO1 230807Z 19016KT 16/12 A2995 RMK A01 T01610118  RH  075%=      5-min Rain = 0
KRO1 230808Z 19015KT 16/12 A2995 RMK A01 T01610118  RH  075%=      5-min Rain = 0
KRO1 230809Z 19017KT 16/12 A2995 RMK A01 T01610118  RH  075%=      5-min Rain = 0
KRO1 230810Z 19015KT 16/12 A2995 RMK A01 T01610118  RH  075%=      5-min Rain = 0
KRO1 230811Z 19015KT 16/12 A2995 RMK A01 T01600118  RH  076%=      5-min Rain = 0
KRO1 230812Z 19016KT 16/12 A2995 RMK A01 T01600118  RH  076%=      5-min Rain = 0
KRO1 230813Z 19015KT 16/12 A2995 RMK A01 T01600118  RH  076%=      5-min Rain = 0
KRO1 230814Z 19014KT 16/12 A2995 RMK A01 T01610118  RH  076%=      5-min Rain = 0
KRO1 230815Z 19015KT 16/12 A2995 RMK A01 T01600118  RH  076%=      5-min Rain = 0
KRO1 230816Z 19015KT 16/12 A2995 RMK A01 T01600118  RH  076%=      5-min Rain = 0
KRO1 230817Z 19015KT 16/12 A2995 RMK A01 T01600118  RH  076%=      5-min Rain = 0
KRO1 230818Z 19016KT 16/12 A2995 RMK A01 T01600118  RH  076%=      5-min Rain = 0
KRO1 230819Z 19015KT 16/12 A2995 RMK A01 T01600119  RH  076%=      5-min Rain = 0
KRO1 230820Z 19015KT 16/12 A2995 RMK A01 T01600118  RH  076%=      5-min Rain = 0
KRO1 230821Z 19015KT 16/12 A2995 RMK A01 T01600119  RH  076%=      5-min Rain = 0
KRO1 230822Z 20016KT 16/12 A2995 RMK A01 T01600118  RH  076%=      5-min Rain = 0
KRO1 230823Z 19015KT 16/12 A2995 RMK A01 T01610119  RH  076%=      5-min Rain = 0
KRO1 230824Z 20014KT 16/12 A2995 RMK A01 T01610118  RH  076%=      5-min Rain = 0
KRO1 230825Z 19014KT 16/12 A2995 RMK A01 T01610118  RH  076%=      5-min Rain = 0
KRO1 230826Z 20014KT 16/12 A2995 RMK A01 T01600119  RH  076%=      5-min Rain = 0
KRO1 230827Z 20014KT 16/12 A2995 RMK A01 T01600119  RH  076%=      5-min Rain = 0
KRO1 230828Z 20015KT 16/12 A2995 RMK A01 T01600119  RH  077%=      5-min Rain = 0
KRO1 230829Z 19014KT 16/12 A2995 RMK A01 T01600118  RH  076%=      5-min Rain = 0
KRO1 230830Z 20014G19KT 16/12 A2995 RMK A01 T01600119  RH  077%=      5-min Rain = 0
KRO1 230831Z 20014KT 16/12 A2995 RMK A01 T01600119  RH  077%=      5-min Rain = 0
KRO1 230832Z 20014KT 16/12 A2995 RMK A01 T01600119  RH  077%=      5-min Rain = 0
KRO1 230833Z 20014KT 16/12 A2995 RMK A01 T01600119  RH  077%=      5-min Rain = 0
KRO1 230834Z 20014KT 16/12 A2995 RMK A01 T01600119  RH  077%=      5-min Rain = 0
KRO1 230835Z 20014KT 16/12 A2995 RMK A01 T01590119  RH  077%=      5-min Rain = 0
KRO1 230836Z 20014KT 16/12 A2995 RMK A01 T01590119  RH  077%=      5-min Rain = 0
KRO1 230837Z 20014KT 16/12 A2995 RMK A01 T01600119  RH  077%=      5-min Rain = 0
KRO1 230838Z 20014KT 16/12 A2995 RMK A01 T01600119  RH  077%=      5-min Rain = 0
KRO1 230839Z 20013KT 16/12 A2995 RMK A01 T01590119  RH  077%=      5-min Rain = 0
KRO1 230840Z 20014KT 16/12 A2995 RMK A01 T01590119  RH  077%=      5-min Rain = 0
KRO1 230841Z 20013KT 16/12 A2995 RMK A01 T01590119  RH  077%=      5-min Rain = 0
KRO1 230842Z 20014KT 16/12 A2995 RMK A01 T01580118  RH  077%=      5-min Rain = 0
KRO1 230843Z 20013KT 16/12 A2995 RMK A01 T01580119  RH  077%=      5-min Rain = 0
KRO1 230844Z 20014KT 16/12 A2995 RMK A01 T01580119  RH  077%=      5-min Rain = 0
KRO1 230845Z 20013KT 16/12 A2995 RMK A01 T01580119  RH  077%=      5-min Rain = 0
KRO1 230846Z 20015KT 16/12 A2995 RMK A01 T01580119  RH  078%=      5-min Rain = 0
KRO1 230847Z 20014KT 16/12 A2995 RMK A01 T01580119  RH  077%=      5-min Rain = 0
KRO1 230848Z 20013KT 16/12 A2995 RMK A01 T01580119  RH  077%=      5-min Rain = 0
KRO1 230849Z 20013KT 16/12 A2995 RMK A01 T01580119  RH  078%=      5-min Rain = 0
KRO1 230850Z 20014KT 16/12 A2995 RMK A01 T01580119  RH  078%=      5-min Rain = 0
KRO1 230851Z 20013KT 16/12 A2995 RMK A01 T01570119  RH  078%=      5-min Rain = 0
KRO1 230852Z 20014KT 16/12 A2995 RMK A01 T01570119  RH  078%=      5-min Rain = 0
KRO1 230853Z 20014KT 16/12 A2995 RMK A01 T01570119  RH  078%=      5-min Rain = 0
KRO1 230854Z 20014KT 16/12 A2995 RMK A01 T01570119  RH  078%=      5-min Rain = 0
KRO1 230855Z 20014KT 16/12 A2995 RMK A01 T01570119  RH  078%=      5-min Rain = 0
KRO1 230856Z 20013KT 16/12 A2995 RMK A01 T01570119  RH  078%=      5-min Rain = 0
KRO1 230857Z 20013KT 16/12 A2995 RMK A01 T01570119  RH  078%=      5-min Rain = 0
KRO1 230858Z 20013KT 16/12 A2995 RMK A01 T01560119  RH  078%=      5-min Rain = 0
KRO1 230859Z 20013KT 16/12 A2995 RMK A01 T01560118  RH  078%=      5-min Rain = 0
KRO1 230900Z 20013KT 16/12 A2995 RMK A01 T01560118  RH  078%=      5-min Rain = 0
KRO1 230901Z 20014KT 16/12 A2995 RMK A01 T01560119  RH  079%=      5-min Rain = 0
KRO1 230902Z 20012KT 16/12 A2995 RMK A01 T01560118  RH  078%=      5-min Rain = 0
KRO1 230903Z 20012KT 16/12 A2995 RMK A01 T01560118  RH  078%=      5-min Rain = 0
KRO1 230904Z 20013KT 16/12 A2995 RMK A01 T01550118  RH  079%=      5-min Rain = 0
KRO1 230905Z 20013KT 16/12 A2995 RMK A01 T01550119  RH  079%=      5-min Rain = 0
KRO1 230906Z 20013KT 16/12 A2995 RMK A01 T01550119  RH  079%=      5-min Rain = 0
KRO1 230907Z 20013KT 16/12 A2995 RMK A01 T01550118  RH  079%=      5-min Rain = 0
KRO1 230908Z 21013KT 16/12 A2995 RMK A01 T01550119  RH  079%=      5-min Rain = 0
KRO1 230909Z 21012KT 15/12 A2995 RMK A01 T01540118  RH  079%=      5-min Rain = 0
KRO1 230910Z 20013KT 15/12 A2995 RMK A01 T01540119  RH  079%=      5-min Rain = 0
KRO1 230911Z 20013KT 15/12 A2995 RMK A01 T01540118  RH  079%=      5-min Rain = 0
KRO1 230912Z 20012KT 15/12 A2995 RMK A01 T01540118  RH  080%=      5-min Rain = 0
KRO1 230913Z 21012KT 15/12 A2995 RMK A01 T01530118  RH  080%=      5-min Rain = 0
KRO1 230914Z 20012KT 15/12 A2995 RMK A01 T01530118  RH  080%=      5-min Rain = 0
KRO1 230915Z 20012KT 15/12 A2995 RMK A01 T01520119  RH  080%=      5-min Rain = 0
KRO1 230916Z 20012KT 15/12 A2995 RMK A01 T01520118  RH  080%=      5-min Rain = 0
KRO1 230917Z 20012KT 15/12 A2995 RMK A01 T01520118  RH  080%=      5-min Rain = 0
KRO1 230918Z 20012KT 15/12 A2995 RMK A01 T01520118  RH  080%=      5-min Rain = 0
KRO1 230919Z 20012KT 15/12 A2995 RMK A01 T01520119  RH  080%=      5-min Rain = 0
KRO1 230920Z 20012KT 15/12 A2995 RMK A01 T01520119  RH  080%=      5-min Rain = 0
KRO1 230921Z 20012KT 15/12 A2995 RMK A01 T01520119  RH  081%=      5-min Rain = 0
KRO1 230922Z 20012KT 15/12 A2995 RMK A01 T01520119  RH  081%=      5-min Rain = 0
KRO1 230923Z 20011KT 15/12 A2995 RMK A01 T01520119  RH  080%=      5-min Rain = 0
KRO1 230924Z 20012KT 15/12 A2994 RMK A01 T01520119  RH  081%=      5-min Rain = 0
KRO1 230925Z 21012KT 15/12 A2994 RMK A01 T01520119  RH  081%=      5-min Rain = 0
KRO1 230926Z 20012KT 15/12 A2994 RMK A01 T01520119  RH  081%=      5-min Rain = 0
KRO1 230927Z 21012KT 15/12 A2994 RMK A01 T01520119  RH  081%=      5-min Rain = 0
KRO1 230928Z 20012KT 15/12 A2994 RMK A01 T01520120  RH  081%=      5-min Rain = 0
KRO1 230929Z 21013KT 15/12 A2994 RMK A01 T01520119  RH  081%=      5-min Rain = 0
KRO1 230930Z 21011KT 15/12 A2994 RMK A01 T01520120  RH  081%=      5-min Rain = 0
KRO1 230931Z 21013KT 15/12 A2994 RMK A01 T01510119  RH  081%=      5-min Rain = 0
KRO1 230932Z 21013KT 15/12 A2994 RMK A01 T01510120  RH  081%=      5-min Rain = 0
KRO1 230933Z 21013KT 15/12 A2994 RMK A01 T01520120  RH  081%=      5-min Rain = 0
KRO1 230934Z 21013KT 15/12 A2994 RMK A01 T01520120  RH  081%=      5-min Rain = 0
KRO1 230935Z 20012KT 15/12 A2994 RMK A01 T01510120  RH  081%=      5-min Rain = 0
KRO1 230936Z 20013KT 15/12 A2994 RMK A01 T01520120  RH  081%=      5-min Rain = 0
KRO1 230937Z 21013KT 15/12 A2994 RMK A01 T01520120  RH  082%=      5-min Rain = 0
KRO1 230938Z 21012KT 15/12 A2994 RMK A01 T01520120  RH  081%=      5-min Rain = 0
KRO1 230939Z 21012KT 15/12 A2994 RMK A01 T01520120  RH  081%=      5-min Rain = 0
KRO1 230940Z 21012KT 15/12 A2994 RMK A01 T01510120  RH  082%=      5-min Rain = 0
KRO1 230941Z 21012KT 15/12 A2994 RMK A01 T01510120  RH  082%=      5-min Rain = 0
KRO1 230942Z 21012KT 15/12 A2994 RMK A01 T01510120  RH  082%=      5-min Rain = 0
KRO1 230943Z 21012KT 15/12 A2994 RMK A01 T01500120  RH  082%=      5-min Rain = 0
KRO1 230944Z 21012KT 15/12 A2994 RMK A01 T01510120  RH  082%=      5-min Rain = 0
KRO1 230945Z 21012KT 15/12 A2994 RMK A01 T01510120  RH  082%=      5-min Rain = 0
KRO1 230946Z 21012KT 15/12 A2994 RMK A01 T01510120  RH  082%=      5-min Rain = 0
KRO1 230947Z 21012KT 15/12 A2994 RMK A01 T01500120  RH  082%=      5-min Rain = 0
KRO1 230948Z 21012KT 15/12 A2994 RMK A01 T01500120  RH  082%=      5-min Rain = 0
KRO1 230949Z 21012KT 15/12 A2994 RMK A01 T01500120  RH  082%=      5-min Rain = 0
KRO1 230950Z 21012KT 15/12 A2994 RMK A01 T01500120  RH  082%=      5-min Rain = 0
KRO1 230951Z 21012KT 15/12 A2994 RMK A01 T01500120  RH  082%=      5-min Rain = 0
KRO1 230952Z 21012KT 15/12 A2994 RMK A01 T01490120  RH  082%=      5-min Rain = 0
KRO1 230953Z 20012KT 15/12 A2994 RMK A01 T01490120  RH  083%=      5-min Rain = 0
KRO1 230954Z 21012KT 15/12 A2994 RMK A01 T01490120  RH  083%=      5-min Rain = 0
KRO1 230955Z 21013KT 15/12 A2994 RMK A01 T01490120  RH  083%=      5-min Rain = 0
KRO1 230956Z 21012KT 15/12 A2994 RMK A01 T01500120  RH  082%=      5-min Rain = 0
KRO1 230957Z 21012KT 15/12 A2994 RMK A01 T01500120  RH  082%=      5-min Rain = 0
KRO1 230958Z 21013KT 15/12 A2994 RMK A01 T01490120  RH  083%=      5-min Rain = 0
KRO1 230959Z 21012KT 15/12 A2994 RMK A01 T01490120  RH  083%=      5-min Rain = 0
KRO1 231000Z 20012KT 15/12 A2994 RMK A01 T01490120  RH  083%=      5-min Rain = 0
KRO1 231001Z 21013KT 15/12 A2994 RMK A01 T01490120  RH  083%=      5-min Rain = 0
KRO1 231002Z 21012KT 15/12 A2994 RMK A01 T01490120  RH  083%=      5-min Rain = 0
KRO1 231003Z 20013KT 15/12 A2994 RMK A01 T01490120  RH  083%=      5-min Rain = 0
KRO1 231004Z 20013KT 15/12 A2994 RMK A01 T01490120  RH  083%=      5-min Rain = 0
KRO1 231005Z 20013KT 15/12 A2994 RMK A01 T01490120  RH  083%=      5-min Rain = 0
KRO1 231006Z 21014KT 15/12 A2994 RMK A01 T01490120  RH  083%=      5-min Rain = 0
KRO1 231007Z 21014KT 15/12 A2994 RMK A01 T01490120  RH  083%=      5-min Rain = 0
KRO1 231008Z 21014KT 15/12 A2994 RMK A01 T01500120  RH  083%=      5-min Rain = 0
KRO1 231009Z 20013KT 15/12 A2994 RMK A01 T01490120  RH  083%=      5-min Rain = 0
KRO1 231010Z 20013KT 15/12 A2994 RMK A01 T01480120  RH  083%=      5-min Rain = 0
KRO1 231011Z 20013KT 15/12 A2994 RMK A01 T01480120  RH  083%=      5-min Rain = 0
KRO1 231012Z 20014KT 15/12 A2994 RMK A01 T01480120  RH  083%=      5-min Rain = 0
KRO1 231013Z 20014KT 15/12 A2994 RMK A01 T01490120  RH  083%=      5-min Rain = 0
KRO1 231014Z 20014KT 15/12 A2994 RMK A01 T01490120  RH  083%=      5-min Rain = 0
KRO1 231015Z 20014KT 15/12 A2994 RMK A01 T01490121  RH  083%=      5-min Rain = 0
KRO1 231016Z 20014KT 15/12 A2994 RMK A01 T01500121  RH  083%=      5-min Rain = 0
KRO1 231017Z 20015KT 15/12 A2994 RMK A01 T01510121  RH  083%=      5-min Rain = 0
KRO1 231018Z 20014KT 15/12 A2994 RMK A01 T01500121  RH  082%=      5-min Rain = 0
KRO1 231019Z 20013KT 15/12 A2994 RMK A01 T01510121  RH  082%=      5-min Rain = 0
KRO1 231020Z 20014KT 15/12 A2994 RMK A01 T01510121  RH  082%=      5-min Rain = 0
KRO1 231021Z 20014G19KT 15/12 A2994 RMK A01 T01510121  RH  083%=      5-min Rain = 0
KRO1 231022Z 20014KT 15/12 A2994 RMK A01 T01510121  RH  082%=      5-min Rain = 0
KRO1 231023Z 20013KT 15/12 A2994 RMK A01 T01520121  RH  082%=      5-min Rain = 0
KRO1 231024Z 20014KT 15/12 A2994 RMK A01 T01510121  RH  082%=      5-min Rain = 0
KRO1 231025Z 20014KT 15/12 A2994 RMK A01 T01510121  RH  083%=      5-min Rain = 0
KRO1 231026Z 20014KT 15/12 A2994 RMK A01 T01500121  RH  083%=      5-min Rain = 0
KRO1 231027Z 20015KT 15/12 A2994 RMK A01 T01510121  RH  083%=      5-min Rain = 0
KRO1 231028Z 20015KT 15/12 A2994 RMK A01 T01500121  RH  083%=      5-min Rain = 0
KRO1 231029Z 20015KT 15/12 A2994 RMK A01 T01500121  RH  083%=      5-min Rain = 0
KRO1 231030Z 20014KT 15/12 A2994 RMK A01 T01500121  RH  082%=      5-min Rain = 0
KRO1 231031Z 21013KT 15/12 A2994 RMK A01 T01510121  RH  082%=      5-min Rain = 0
KRO1 231032Z 20013KT 15/12 A2994 RMK A01 T01500121  RH  083%=      5-min Rain = 0
KRO1 231033Z 21014KT 15/12 A2994 RMK A01 T01490121  RH  083%=      5-min Rain = 0
KRO1 231034Z 20013KT 15/12 A2994 RMK A01 T01490121  RH  083%=      5-min Rain = 0
KRO1 231035Z 20014KT 15/12 A2994 RMK A01 T01490121  RH  083%=      5-min Rain = 0
KRO1 231036Z 20013KT 15/12 A2994 RMK A01 T01490121  RH  083%=      5-min Rain = 0
KRO1 231037Z 20013KT 15/12 A2994 RMK A01 T01490121  RH  083%=      5-min Rain = 0
KRO1 231038Z 20015KT 15/12 A2994 RMK A01 T01490121  RH  083%=      5-min Rain = 0
KRO1 231039Z 20013KT 15/12 A2994 RMK A01 T01490121  RH  083%=      5-min Rain = 0
KRO1 231040Z 20013KT 15/12 A2994 RMK A01 T01490121  RH  083%=      5-min Rain = 0
KRO1 231041Z 20014KT 15/12 A2994 RMK A01 T01490121  RH  083%=      5-min Rain = 0
KRO1 231042Z 20014KT 15/12 A2994 RMK A01 T01490121  RH  083%=      5-min Rain = 0
KRO1 231043Z 20014KT 15/12 A2994 RMK A01 T01490121  RH  083%=      5-min Rain = 0
KRO1 231044Z 21013KT 15/12 A2994 RMK A01 T01490122  RH  083%=      5-min Rain = 0
KRO1 231045Z 20013KT 15/12 A2994 RMK A01 T01490121  RH  083%=      5-min Rain = 0
KRO1 231046Z 20014KT 15/12 A2994 RMK A01 T01480121  RH  084%=      5-min Rain = 0
KRO1 231047Z 20014KT 15/12 A2994 RMK A01 T01480121  RH  084%=      5-min Rain = 0
KRO1 231048Z 20013KT 15/12 A2994 RMK A01 T01480121  RH  084%=      5-min Rain = 0
KRO1 231049Z 21013KT 15/12 A2994 RMK A01 T01480121  RH  084%=      5-min Rain = 0
KRO1 231050Z 21013KT 15/12 A2994 RMK A01 T01480121  RH  084%=      5-min Rain = 0
KRO1 231051Z 21012KT 15/12 A2994 RMK A01 T01480121  RH  084%=      5-min Rain = 0
KRO1 231052Z 21013KT 15/12 A2994 RMK A01 T01470120  RH  084%=      5-min Rain = 0
KRO1 231053Z 20012KT 15/12 A2994 RMK A01 T01470121  RH  084%=      5-min Rain = 0
KRO1 231054Z 21013KT 15/12 A2994 RMK A01 T01470121  RH  085%=      5-min Rain = 0
KRO1 231055Z 21013KT 15/12 A2994 RMK A01 T01470121  RH  084%=      5-min Rain = 0
KRO1 231056Z 21013KT 15/12 A2994 RMK A01 T01470121  RH  084%=      5-min Rain = 0
KRO1 231057Z 21013KT 15/12 A2994 RMK A01 T01460120  RH  084%=      5-min Rain = 0
KRO1 231058Z 20013KT 15/12 A2994 RMK A01 T01470121  RH  084%=      5-min Rain = 0
KRO1 231059Z 20014KT 15/12 A2994 RMK A01 T01470121  RH  085%=      5-min Rain = 0
KRO1 231100Z 20013KT 15/12 A2995 RMK A01 T01470121  RH  084%=      5-min Rain = 0
KRO1 231101Z 21012KT 15/12 A2995 RMK A01 T01470121  RH  084%=      5-min Rain = 0
KRO1 231102Z 21014KT 15/12 A2995 RMK A01 T01470121  RH  084%=      5-min Rain = 0
KRO1 231103Z 21013KT 15/12 A2995 RMK A01 T01470121  RH  084%=      5-min Rain = 0
KRO1 231104Z 21013KT 15/12 A2995 RMK A01 T01470121  RH  084%=      5-min Rain = 0
KRO1 231105Z 21012KT 15/12 A2995 RMK A01 T01470121  RH  084%=      5-min Rain = 0
KRO1 231106Z 21013KT 15/12 A2995 RMK A01 T01460121  RH  085%=      5-min Rain = 0
KRO1 231107Z 21012KT 15/12 A2995 RMK A01 T01460120  RH  085%=      5-min Rain = 0
KRO1 231108Z 21012KT 15/12 A2995 RMK A01 T01450120  RH  085%=      5-min Rain = 0
KRO1 231109Z 21012KT 15/12 A2995 RMK A01 T01450121  RH  085%=      5-min Rain = 0
KRO1 231110Z 21012KT 15/12 A2995 RMK A01 T01450120  RH  085%=      5-min Rain = 0
KRO1 231111Z 21012KT 14/12 A2995 RMK A01 T01440120  RH  085%=      5-min Rain = 0
KRO1 231112Z 21012KT 14/12 A2995 RMK A01 T01440120  RH  086%=      5-min Rain = 0
KRO1 231113Z 21012KT 14/12 A2995 RMK A01 T01440120  RH  086%=      5-min Rain = 0
KRO1 231114Z 21012KT 14/12 A2995 RMK A01 T01440120  RH  086%=      5-min Rain = 0
KRO1 231115Z 21011KT 14/12 A2995 RMK A01 T01440120  RH  086%=      5-min Rain = 0
KRO1 231116Z 21011KT 14/12 A2995 RMK A01 T01440120  RH  086%=      5-min Rain = 0
KRO1 231117Z 21012KT 14/12 A2995 RMK A01 T01440120  RH  086%=      5-min Rain = 0
KRO1 231118Z 21011KT 14/12 A2995 RMK A01 T01430120  RH  086%=      5-min Rain = 0
KRO1 231119Z 21011KT 14/12 A2995 RMK A01 T01430120  RH  086%=      5-min Rain = 0
KRO1 231120Z 21012KT 14/12 A2995 RMK A01 T01430120  RH  086%=      5-min Rain = 0
KRO1 231121Z 21011KT 14/12 A2995 RMK A01 T01430120  RH  086%=      5-min Rain = 0
KRO1 231122Z 21011KT 14/12 A2995 RMK A01 T01430120  RH  086%=      5-min Rain = 0
KRO1 231123Z 21010KT 14/12 A2995 RMK A01 T01430120  RH  086%=      5-min Rain = 0
KRO1 231124Z 22010KT 14/12 A2995 RMK A01 T01420119  RH  086%=      5-min Rain = 0
KRO1 231125Z 22010KT 14/12 A2995 RMK A01 T01420120  RH  086%=      5-min Rain = 0
KRO1 231126Z 22010KT 14/12 A2995 RMK A01 T01420119  RH  086%=      5-min Rain = 0
KRO1 231127Z 22011KT 14/12 A2995 RMK A01 T01410119  RH  086%=      5-min Rain = 0
KRO1 231128Z 22011KT 14/12 A2995 RMK A01 T01410119  RH  087%=      5-min Rain = 0
KRO1 231129Z 22011KT 14/12 A2995 RMK A01 T01410119  RH  087%=      5-min Rain = 0
KRO1 231130Z 22011KT 14/12 A2995 RMK A01 T01410120  RH  087%=      5-min Rain = 0
KRO1 231131Z 22012KT 14/12 A2995 RMK A01 T01420120  RH  087%=      5-min Rain = 0
KRO1 231132Z 22012KT 14/12 A2995 RMK A01 T01420120  RH  086%=      5-min Rain = 0
KRO1 231133Z 22013KT 14/12 A2996 RMK A01 T01430120  RH  086%=      5-min Rain = 0
KRO1 231134Z 21012KT 14/12 A2996 RMK A01 T01430120  RH  086%=      5-min Rain = 0
KRO1 231135Z 22011KT 14/12 A2996 RMK A01 T01430120  RH  086%=      5-min Rain = 0
KRO1 231136Z 22011KT 14/12 A2996 RMK A01 T01420120  RH  086%=      5-min Rain = 0
KRO1 231137Z 22010KT 14/12 A2996 RMK A01 T01420120  RH  086%=      5-min Rain = 0
KRO1 231138Z 22011KT 14/12 A2996 RMK A01 T01410119  RH  086%=      5-min Rain = 0
KRO1 231139Z 22010KT 14/12 A2996 RMK A01 T01410119  RH  087%=      5-min Rain = 0
KRO1 231140Z 22010KT 14/12 A2996 RMK A01 T01410119  RH  087%=      5-min Rain = 0
KRO1 231141Z 22010KT 14/12 A2996 RMK A01 T01410119  RH  087%=      5-min Rain = 0
KRO1 231142Z 22010KT 14/12 A2996 RMK A01 T01410120  RH  087%=      5-min Rain = 0
KRO1 231143Z 22010KT 14/12 A2996 RMK A01 T01410119  RH  087%=      5-min Rain = 0
KRO1 231144Z 22010KT 14/12 A2996 RMK A01 T01410119  RH  087%=      5-min Rain = 0
KRO1 231145Z 22010KT 14/12 A2996 RMK A01 T01410119  RH  087%=      5-min Rain = 0
KRO1 231146Z 22010KT 14/12 A2996 RMK A01 T01410120  RH  087%=      5-min Rain = 0
KRO1 231147Z 22010KT 14/12 A2996 RMK A01 T01410119  RH  087%=      5-min Rain = 0
KRO1 231148Z 22010KT 14/12 A2996 RMK A01 T01410119  RH  087%=      5-min Rain = 0
KRO1 231149Z 22010KT 14/12 A2996 RMK A01 T01400119  RH  087%=      5-min Rain = 0
KRO1 231150Z 22009KT 14/12 A2996 RMK A01 T01400119  RH  087%=      5-min Rain = 0
KRO1 231151Z 22010KT 14/12 A2996 RMK A01 T01400119  RH  087%=      5-min Rain = 0
KRO1 231152Z 22010KT 14/12 A2996 RMK A01 T01400119  RH  087%=      5-min Rain = 0
KRO1 231153Z 21009KT 14/12 A2996 RMK A01 T01400119  RH  087%=      5-min Rain = 0
KRO1 231154Z 21010KT 14/12 A2996 RMK A01 T01390118  RH  087%=      5-min Rain = 0
KRO1 231155Z 21010KT 14/12 A2996 RMK A01 T01390118  RH  087%=      5-min Rain = 0
KRO1 231156Z 21011KT 14/12 A2996 RMK A01 T01380118  RH  088%=      5-min Rain = 0
KRO1 231157Z 22010KT 14/12 A2996 RMK A01 T01370118  RH  088%=      5-min Rain = 0
KRO1 231158Z 22011KT 14/12 A2996 RMK A01 T01370118  RH  088%=      5-min Rain = 0
KRO1 231159Z 22012KT 14/12 A2996 RMK A01 T01380119  RH  088%=      5-min Rain = 0
KRO1 231200Z 22012KT 14/12 A2996 RMK A01 T01390119  RH  088%=      5-min Rain = 0
KRO1 231201Z 23011KT 14/12 A2996 RMK A01 T01400120  RH  088%=      5-min Rain = 0
KRO1 231202Z 22011KT 14/12 A2996 RMK A01 T01410120  RH  087%=      5-min Rain = 0
KRO1 231203Z 22011KT 14/12 A2997 RMK A01 T01410120  RH  087%=      5-min Rain = 0
KRO1 231204Z 22011KT 14/12 A2997 RMK A01 T01410120  RH  087%=      5-min Rain = 0
KRO1 231205Z 22011KT 14/12 A2997 RMK A01 T01410120  RH  087%=      5-min Rain = 0
KRO1 231206Z 22011KT 14/12 A2997 RMK A01 T01410120  RH  087%=      5-min Rain = 0
KRO1 231207Z 22010KT 14/12 A2997 RMK A01 T01420120  RH  087%=      5-min Rain = 0
KRO1 231208Z 22010KT 14/12 A2997 RMK A01 T01410119  RH  087%=      5-min Rain = 0
KRO1 231209Z 22010KT 14/12 A2997 RMK A01 T01400119  RH  087%=      5-min Rain = 0
KRO1 231210Z 22010KT 14/12 A2997 RMK A01 T01400119  RH  087%=      5-min Rain = 0
KRO1 231211Z 22010KT 14/12 A2997 RMK A01 T01400119  RH  087%=      5-min Rain = 0
KRO1 231212Z 22009KT 14/12 A2997 RMK A01 T01400119  RH  087%=      5-min Rain = 0
KRO1 231213Z 22010KT 14/12 A2997 RMK A01 T01400119  RH  087%=      5-min Rain = 0
KRO1 231214Z 22009KT 14/12 A2997 RMK A01 T01390118  RH  087%=      5-min Rain = 0
KRO1 231215Z 22009KT 14/12 A2997 RMK A01 T01380118  RH  087%=      5-min Rain = 0
KRO1 231216Z 22009KT 14/12 A2997 RMK A01 T01380119  RH  088%=      5-min Rain = 0
KRO1 231217Z 23009KT 14/12 A2997 RMK A01 T01380119  RH  088%=      5-min Rain = 0
KRO1 231218Z 23009KT 14/12 A2997 RMK A01 T01380118  RH  088%=      5-min Rain = 0
KRO1 231219Z 23009KT 14/12 A2997 RMK A01 T01370118  RH  088%=      5-min Rain = 0
KRO1 231220Z 23009KT 14/12 A2997 RMK A01 T01370118  RH  088%=      5-min Rain = 0
KRO1 231221Z 24009KT 14/12 A2997 RMK A01 T01360118  RH  088%=      5-min Rain = 0
KRO1 231222Z 24009KT 14/12 A2997 RMK A01 T01360117  RH  088%=      5-min Rain = 0
KRO1 231223Z 25009KT 14/12 A2997 RMK A01 T01350117  RH  089%=      5-min Rain = 0
KRO1 231224Z 25008KT 14/12 A2998 RMK A01 T01350117  RH  089%=      5-min Rain = 0
KRO1 231225Z 26009KT 14/12 A2998 RMK A01 T01350117  RH  089%=      5-min Rain = 0
KRO1 231226Z 26009KT 13/12 A2998 RMK A01 T01340117  RH  089%=      5-min Rain = 0
KRO1 231227Z 27010KT 13/12 A2998 RMK A01 T01340116  RH  089%=      5-min Rain = 0
KRO1 231228Z 27010KT 13/12 A2998 RMK A01 T01330116  RH  089%=      5-min Rain = 0
KRO1 231229Z 27009KT 13/12 A2998 RMK A01 T01330116  RH  090%=      5-min Rain = 0
KRO1 231230Z 28009KT 13/12 A2998 RMK A01 T01320117  RH  090%=      5-min Rain = 0
KRO1 231231Z 28010KT 13/12 A2999 RMK A01 T01320116  RH  090%=      5-min Rain = 0
KRO1 231232Z 28010KT 13/12 A2999 RMK A01 T01320116  RH  090%=      5-min Rain = 0
KRO1 231233Z 28010KT 13/12 A2999 RMK A01 T01310116  RH  090%=      5-min Rain = 0
KRO1 231234Z 28010KT 13/12 A2999 RMK A01 T01310116  RH  090%=      5-min Rain = 0
KRO1 231235Z 29010KT 13/12 A2999 RMK A01 T01310116  RH  091%=      5-min Rain = 0
KRO1 231236Z 29009KT 13/12 A2999 RMK A01 T01320117  RH  091%=      5-min Rain = 0
KRO1 231237Z 29009KT 13/12 A2999 RMK A01 T01320117  RH  091%=      5-min Rain = 0
KRO1 231238Z 29008KT 13/12 A2999 RMK A01 T01320118  RH  091%=      5-min Rain = 0
KRO1 231239Z 29008KT 13/12 A2999 RMK A01 T01330118  RH  091%=      5-min Rain = 0
KRO1 231240Z 28008KT 13/12 A2999 RMK A01 T01330119  RH  091%=      5-min Rain = 0
KRO1 231241Z 28008KT 13/12 A2999 RMK A01 T01340119  RH  091%=      5-min Rain = 0
KRO1 231242Z 28008KT 14/12 A2999 RMK A01 T01350120  RH  091%=      5-min Rain = 0
KRO1 231243Z 28008KT 14/12 A2999 RMK A01 T01350120  RH  091%=      5-min Rain = 0
KRO1 231244Z 27008KT 14/12 A2999 RMK A01 T01360121  RH  091%=      5-min Rain = 0
KRO1 231245Z 26007KT 14/12 A2999 RMK A01 T01370121  RH  090%=      5-min Rain = 0
KRO1 231246Z 26007KT 14/12 A2999 RMK A01 T01380121  RH  090%=      5-min Rain = 0
KRO1 231247Z 26007KT 14/12 A2999 RMK A01 T01370120  RH  089%=      5-min Rain = 0
KRO1 231248Z 25007KT 14/12 A2999 RMK A01 T01370120  RH  089%=      5-min Rain = 0
KRO1 231249Z 25007KT 14/12 A2999 RMK A01 T01360119  RH  089%=      5-min Rain = 0
KRO1 231250Z 25008KT 14/12 A2999 RMK A01 T01360119  RH  090%=      5-min Rain = 0
KRO1 231251Z 25008KT 14/12 A2999 RMK A01 T01360119  RH  090%=      5-min Rain = 0
KRO1 231252Z 26008KT 14/12 A2999 RMK A01 T01350118  RH  090%=      5-min Rain = 0
KRO1 231253Z 26009KT 13/12 A2999 RMK A01 T01340118  RH  090%=      5-min Rain = 0
KRO1 231254Z 26009KT 13/12 A2999 RMK A01 T01340118  RH  090%=      5-min Rain = 0
KRO1 231255Z 26009KT 13/12 A2999 RMK A01 T01330118  RH  090%=      5-min Rain = 0
KRO1 231256Z 25010KT 13/12 A2999 RMK A01 T01330118  RH  090%=      5-min Rain = 0
KRO1 231257Z 25010KT 13/12 A2999 RMK A01 T01330119  RH  091%=      5-min Rain = 0
KRO1 231258Z 25010KT 14/12 A2999 RMK A01 T01350119  RH  090%=      5-min Rain = 0
KRO1 231259Z 25010KT 14/12 A2999 RMK A01 T01350119  RH  090%=      5-min Rain = 0
KRO1 231300Z 25010KT 14/12 A2999 RMK A01 T01350119  RH  090%=      5-min Rain = 0
KRO1 231301Z 25009KT 14/12 A2999 RMK A01 T01350119  RH  090%=      5-min Rain = 0
KRO1 231302Z 25009KT 14/12 A2999 RMK A01 T01350119  RH  090%=      5-min Rain = 0
KRO1 231303Z 25009KT 13/12 A2999 RMK A01 T01340118  RH  090%=      5-min Rain = 0
KRO1 231304Z 25010KT 13/12 A2999 RMK A01 T01330118  RH  090%=      5-min Rain = 0
KRO1 231305Z 25010KT 13/12 A2999 RMK A01 T01330118  RH  090%=      5-min Rain = 0
KRO1 231306Z 25010KT 13/12 A2999 RMK A01 T01330118  RH  090%=      5-min Rain = 0
KRO1 231307Z 25010KT 13/12 A2999 RMK A01 T01330118  RH  091%=      5-min Rain = 0
KRO1 231308Z 25011KT 13/12 A30 RMK A01 T01330118  RH  091%=      5-min Rain = 0
KRO1 231309Z 25010KT 13/12 A30 RMK A01 T01330119  RH  091%=      5-min Rain = 0
KRO1 231310Z 25010KT 13/12 A30 RMK A01 T01340119  RH  091%=      5-min Rain = 0
KRO1 231311Z 26009KT 13/12 A30 RMK A01 T01340119  RH  091%=      5-min Rain = 0
KRO1 231312Z 26010KT 13/12 A30 RMK A01 T01340119  RH  091%=      5-min Rain = 0
KRO1 231313Z 26009KT 13/12 A30 RMK A01 T01340119  RH  091%=      5-min Rain = 0
KRO1 231314Z 26010KT 13/12 A30 RMK A01 T01340119  RH  091%=      5-min Rain = 0
KRO1 231315Z 26009KT 13/12 A30 RMK A01 T01340119  RH  091%=      5-min Rain = 0
KRO1 231316Z 26010KT 13/12 A30 RMK A01 T01340120  RH  091%=      5-min Rain = 0
KRO1 231317Z 26010KT 13/12 A30 RMK A01 T01340120  RH  091%=      5-min Rain = 0
KRO1 231318Z 26010KT 14/12 A30 RMK A01 T01350121  RH  091%=      5-min Rain = 0
KRO1 231319Z 25010KT 14/12 A30 RMK A01 T01360121  RH  091%=      5-min Rain = 0
KRO1 231320Z 25010KT 14/12 A30 RMK A01 T01360122  RH  091%=      5-min Rain = 0
KRO1 231321Z 25010KT 14/12 A30 RMK A01 T01370122  RH  091%=      5-min Rain = 0
KRO1 231322Z 25011KT 14/12 A30 RMK A01 T01370122  RH  090%=      5-min Rain = 0
KRO1 231323Z 25011KT 14/12 A30 RMK A01 T01370122  RH  090%=      5-min Rain = 0
KRO1 231324Z 25011KT 14/12 A30 RMK A01 T01380122  RH  090%=      5-min Rain = 0
KRO1 231325Z 25010KT 14/12 A30 RMK A01 T01380122  RH  090%=      5-min Rain = 0
KRO1 231326Z 25009KT 14/12 A30 RMK A01 T01380122  RH  090%=      5-min Rain = 0
KRO1 231327Z 24009KT 14/12 A30 RMK A01 T01380121  RH  090%=      5-min Rain = 0
KRO1 231328Z 24010KT 14/12 A30 RMK A01 T01380122  RH  090%=      5-min Rain = 0
KRO1 231329Z 24009KT 14/12 A30 RMK A01 T01380122  RH  090%=      5-min Rain = 0
KRO1 231330Z 23010KT 14/12 A30 RMK A01 T01390122  RH  090%=      5-min Rain = 0
KRO1 231331Z 23008KT 14/12 A30 RMK A01 T01390122  RH  090%=      5-min Rain = 0
KRO1 231332Z 23009KT 14/12 A30 RMK A01 T01400122  RH  089%=      5-min Rain = 0
KRO1 231333Z 23009KT 14/12 A30 RMK A01 T01400122  RH  089%=      5-min Rain = 0
KRO1 231334Z 23010KT 14/12 A30 RMK A01 T01400123  RH  089%=      5-min Rain = 0
KRO1 231335Z 23010KT 14/12 A30 RMK A01 T01410123  RH  089%=      5-min Rain = 0
KRO1 231336Z 23010KT 14/12 A3001 RMK A01 T01410123  RH  089%=      5-min Rain = 0
KRO1 231337Z 23010KT 14/12 A3001 RMK A01 T01420124  RH  089%=      5-min Rain = 0
KRO1 231338Z 23011KT 14/12 A3001 RMK A01 T01430124  RH  089%=      5-min Rain = 0
KRO1 231339Z 23011KT 14/12 A3001 RMK A01 T01440124  RH  088%=      5-min Rain = 0
KRO1 231340Z 23011KT 15/13 A3001 RMK A01 T01450125  RH  088%=      5-min Rain = 0
KRO1 231341Z 22011KT 15/13 A3001 RMK A01 T01450125  RH  088%=      5-min Rain = 0
KRO1 231342Z 22011KT 15/13 A3001 RMK A01 T01460125  RH  087%=      5-min Rain = 0
KRO1 231343Z 22010KT 15/13 A3001 RMK A01 T01460125  RH  087%=      5-min Rain = 0
KRO1 231344Z 22010KT 15/13 A3001 RMK A01 T01470125  RH  087%=      5-min Rain = 0
KRO1 231345Z 22010KT 15/13 A3001 RMK A01 T01470125  RH  087%=      5-min Rain = 0
KRO1 231346Z 22009KT 15/13 A3001 RMK A01 T01470126  RH  087%=      5-min Rain = 0
KRO1 231347Z 22009KT 15/13 A3001 RMK A01 T01480126  RH  087%=      5-min Rain = 0
KRO1 231348Z 22009KT 15/13 A3001 RMK A01 T01480126  RH  087%=      5-min Rain = 0
KRO1 231349Z 22009KT 15/13 A3001 RMK A01 T01490126  RH  086%=      5-min Rain = 0
KRO1 231350Z 22009KT 15/13 A3001 RMK A01 T01490127  RH  086%=      5-min Rain = 0
KRO1 231351Z 21009KT 15/13 A3001 RMK A01 T01500127  RH  086%=      5-min Rain = 0
KRO1 231352Z 21010KT 15/13 A3001 RMK A01 T01500127  RH  086%=      5-min Rain = 0
KRO1 231353Z 21009KT 15/13 A3001 RMK A01 T01510128  RH  086%=      5-min Rain = 0
KRO1 231354Z 21010KT 15/13 A3001 RMK A01 T01510128  RH  086%=      5-min Rain = 0
KRO1 231355Z 21011KT 15/13 A3001 RMK A01 T01520128  RH  086%=      5-min Rain = 0
KRO1 231356Z 22010KT 15/13 A3001 RMK A01 T01520129  RH  086%=      5-min Rain = 0
KRO1 231357Z 21010KT 15/13 A3001 RMK A01 T01530129  RH  086%=      5-min Rain = 0
KRO1 231358Z 22011KT 15/13 A3001 RMK A01 T01540129  RH  085%=      5-min Rain = 0
KRO1 231359Z 22011KT 15/13 A3001 RMK A01 T01540129  RH  085%=      5-min Rain = 0
KRO1 231400Z 22011KT 16/13 A3001 RMK A01 T01550129  RH  085%=      5-min Rain = 0
KRO1 231401Z 22012KT 16/13 A3001 RMK A01 T01550130  RH  085%=      5-min Rain = 0
KRO1 231402Z 22012KT 16/13 A3001 RMK A01 T01550128  RH  084%=      5-min Rain = 0
KRO1 231403Z 22011KT 16/13 A3001 RMK A01 T01560129  RH  084%=      5-min Rain = 0
KRO1 231404Z 22013KT 16/13 A3001 RMK A01 T01570130  RH  084%=      5-min Rain = 0
KRO1 231405Z 21013KT 16/13 A3001 RMK A01 T01580130  RH  084%=      5-min Rain = 0
KRO1 231406Z 21013KT 16/13 A3001 RMK A01 T01570129  RH  083%=      5-min Rain = 0
KRO1 231407Z 21013KT 16/13 A3001 RMK A01 T01570129  RH  083%=      5-min Rain = 0
KRO1 231408Z 21011KT 16/13 A3001 RMK A01 T01570130  RH  084%=      5-min Rain = 0
KRO1 231409Z 21013KT 16/13 A3001 RMK A01 T01570129  RH  084%=      5-min Rain = 0
KRO1 231410Z 20011KT 16/13 A3001 RMK A01 T01570129  RH  083%=      5-min Rain = 0
KRO1 231411Z 20012KT 16/13 A3001 RMK A01 T01580130  RH  084%=      5-min Rain = 0
KRO1 231412Z 21012KT 16/13 A3001 RMK A01 T01590131  RH  084%=      5-min Rain = 0
KRO1 231413Z 21012KT 16/13 A3001 RMK A01 T01590130  RH  083%=      5-min Rain = 0
KRO1 231414Z 21011KT 16/13 A3001 RMK A01 T01600131  RH  083%=      5-min Rain = 0
KRO1 231415Z 21012KT 16/13 A3001 RMK A01 T01610132  RH  083%=      5-min Rain = 0
KRO1 231416Z 22011KT 16/13 A3001 RMK A01 T01620131  RH  082%=      5-min Rain = 0
KRO1 231417Z 22010KT 16/13 A3001 RMK A01 T01620132  RH  082%=      5-min Rain = 0
KRO1 231418Z 22011KT 16/13 A3001 RMK A01 T01630132  RH  082%=      5-min Rain = 0
KRO1 231419Z 22011KT 16/13 A3001 RMK A01 T01630132  RH  081%=      5-min Rain = 0
KRO1 231420Z 22010KT 16/13 A3001 RMK A01 T01640132  RH  081%=      5-min Rain = 0
KRO1 231421Z 22011KT 16/13 A3001 RMK A01 T01640133  RH  081%=      5-min Rain = 0
KRO1 231422Z 22013KT 16/13 A3001 RMK A01 T01640131  RH  081%=      5-min Rain = 0
KRO1 231423Z 22012KT 16/13 A3001 RMK A01 T01640131  RH  081%=      5-min Rain = 0
KRO1 231424Z 22011KT 16/13 A3002 RMK A01 T01640131  RH  081%=      5-min Rain = 0
KRO1 231425Z 23010KT 17/13 A3002 RMK A01 T01650132  RH  081%=      5-min Rain = 0
KRO1 231426Z 22012KT 17/13 A3002 RMK A01 T01650132  RH  081%=      5-min Rain = 0
KRO1 231427Z 23012KT 17/13 A3002 RMK A01 T01660131  RH  080%=      5-min Rain = 0
KRO1 231428Z 22010KT 17/13 A3002 RMK A01 T01650131  RH  080%=      5-min Rain = 0
KRO1 231429Z 23010KT 17/13 A3002 RMK A01 T01660132  RH  081%=      5-min Rain = 0
KRO1 231430Z 23011KT 17/13 A3002 RMK A01 T01670134  RH  080%=      5-min Rain = 0
KRO1 231431Z 22011KT 17/13 A3002 RMK A01 T01690133  RH  079%=      5-min Rain = 0
KRO1 231432Z 23010G16KT 17/13 A3002 RMK A01 T01700134  RH  079%=      5-min Rain = 0
KRO1 231433Z 23013KT 17/13 A3002 RMK A01 T01710133  RH  078%=      5-min Rain = 0
KRO1 231434Z 23011KT 17/13 A3002 RMK A01 T01710133  RH  078%=      5-min Rain = 0
KRO1 231435Z 23014KT 17/13 A3002 RMK A01 T01720134  RH  078%=      5-min Rain = 0
KRO1 231436Z 23018KT 17/13 A3002 RMK A01 T01740133  RH  077%=      5-min Rain = 0
KRO1 231437Z 23016KT 17/13 A3002 RMK A01 T01740132  RH  076%=      5-min Rain = 0
KRO1 231438Z 23016KT 17/13 A3002 RMK A01 T01740132  RH  076%=      5-min Rain = 0
KRO1 231439Z 23017KT 17/13 A3002 RMK A01 T01740131  RH  076%=      5-min Rain = 0
KRO1 231440Z 22019KT 18/13 A3002 RMK A01 T01750132  RH  076%=      5-min Rain = 0
KRO1 231441Z 23015KT 18/13 A3002 RMK A01 T01750132  RH  076%=      5-min Rain = 0
KRO1 231442Z 23018KT 18/13 A3002 RMK A01 T01760133  RH  076%=      5-min Rain = 0
KRO1 231443Z 22018KT 18/13 A3002 RMK A01 T01760131  RH  075%=      5-min Rain = 0
KRO1 231444Z 23019KT 18/13 A3002 RMK A01 T01760131  RH  075%=      5-min Rain = 0
KRO1 231445Z 23017KT 18/13 A3002 RMK A01 T01760131  RH  075%=      5-min Rain = 0
KRO1 231446Z 23017KT 18/13 A3002 RMK A01 T01760132  RH  075%=      5-min Rain = 0
KRO1 231447Z 23016KT 18/13 A3002 RMK A01 T01760132  RH  075%=      5-min Rain = 0
KRO1 231448Z 23017KT 18/13 A3002 RMK A01 T01770132  RH  075%=      5-min Rain = 0
KRO1 231449Z 22016KT 18/13 A3002 RMK A01 T01770132  RH  075%=      5-min Rain = 0
KRO1 231450Z 23017KT 18/13 A3002 RMK A01 T01770132  RH  075%=      5-min Rain = 0
KRO1 231451Z 23015KT 18/13 A3002 RMK A01 T01770133  RH  075%=      5-min Rain = 0
KRO1 231452Z 23014KT 18/13 A3002 RMK A01 T01780133  RH  075%=      5-min Rain = 0
KRO1 231453Z 23014KT 18/13 A3002 RMK A01 T01790134  RH  075%=      5-min Rain = 0
KRO1 231454Z 23017KT 18/13 A3002 RMK A01 T01810134  RH  074%=      5-min Rain = 0
KRO1 231455Z 23015KT 18/13 A3002 RMK A01 T01810133  RH  074%=      5-min Rain = 0
KRO1 231456Z 22016KT 18/14 A3002 RMK A01 T01820135  RH  074%=      5-min Rain = 0
KRO1 231457Z 23015KT 18/13 A3003 RMK A01 T01830134  RH  073%=      5-min Rain = 0
KRO1 231458Z 24014KT 18/14 A3003 RMK A01 T01830135  RH  074%=      5-min Rain = 0
KRO1 231459Z 23014KT 18/13 A3003 RMK A01 T01840134  RH  073%=      5-min Rain = 0
KRO1 231500Z 23016G21KT 18/13 A3003 RMK A01 T01840134  RH  073%=      5-min Rain = 0
KRO1 231501Z 23018KT 18/13 A3003 RMK A01 T01840133  RH  072%=      5-min Rain = 0
KRO1 231502Z 23016KT 18/13 A3003 RMK A01 T01820133  RH  073%=      5-min Rain = 0
KRO1 231503Z 23017KT 18/13 A3003 RMK A01 T01820133  RH  073%=      5-min Rain = 0
KRO1 231504Z 23015KT 18/13 A3003 RMK A01 T01820132  RH  072%=      5-min Rain = 0
KRO1 231505Z 23016KT 18/13 A3003 RMK A01 T01800131  RH  073%=      5-min Rain = 0
KRO1 231506Z 23016KT 18/13 A3003 RMK A01 T01780130  RH  073%=      5-min Rain = 0
KRO1 231507Z 23015KT 18/13 A3003 RMK A01 T01760129  RH  074%=      5-min Rain = 0
KRO1 231508Z 23014KT 17/13 A3003 RMK A01 T01740130  RH  075%=      5-min Rain = 0
KRO1 231509Z 22014KT 17/13 A3003 RMK A01 T01740130  RH  075%=      5-min Rain = 0
KRO1 231510Z 22014KT 18/13 A3003 RMK A01 T01750131  RH  075%=      5-min Rain = 0
KRO1 231511Z 22015KT 18/13 A3003 RMK A01 T01770132  RH  075%=      5-min Rain = 0
KRO1 231512Z 23015KT 18/13 A3003 RMK A01 T01780132  RH  074%=      5-min Rain = 0
KRO1 231513Z 24016KT 18/13 A3003 RMK A01 T01790132  RH  074%=      5-min Rain = 0
KRO1 231514Z 24016KT 18/13 A3003 RMK A01 T01800131  RH  073%=      5-min Rain = 0
KRO1 231515Z 24017KT 18/13 A3003 RMK A01 T01810131  RH  072%=      5-min Rain = 0
KRO1 231516Z 24017KT 18/13 A3003 RMK A01 T01810129  RH  072%=      5-min Rain = 0
KRO1 231517Z 23015KT 18/13 A3003 RMK A01 T01810129  RH  072%=      5-min Rain = 0
KRO1 231518Z 23017KT 18/13 A3003 RMK A01 T01810129  RH  071%=      5-min Rain = 0
KRO1 231519Z 23017KT 18/13 A3003 RMK A01 T01810128  RH  071%=      5-min Rain = 0
KRO1 231520Z 23015KT 18/13 A3003 RMK A01 T01810129  RH  072%=      5-min Rain = 0
KRO1 231521Z 22014KT 18/13 A3003 RMK A01 T01810129  RH  072%=      5-min Rain = 0
KRO1 231522Z 23015KT 18/13 A3003 RMK A01 T01820130  RH  072%=      5-min Rain = 0
KRO1 231523Z 23015KT 18/13 A3003 RMK A01 T01820129  RH  071%=      5-min Rain = 0
KRO1 231524Z 23014KT 18/13 A3003 RMK A01 T01820129  RH  071%=      5-min Rain = 0
KRO1 231525Z 23016KT 18/13 A3003 RMK A01 T01810129  RH  072%=      5-min Rain = 0
KRO1 231526Z 22017KT 18/13 A3003 RMK A01 T01820128  RH  071%=      5-min Rain = 0
KRO1 231527Z 23012KT 18/13 A3003 RMK A01 T01830129  RH  071%=      5-min Rain = 0
KRO1 231528Z 22014KT 19/13 A3003 RMK A01 T01850131  RH  071%=      5-min Rain = 0
KRO1 231529Z 23015KT 19/13 A3003 RMK A01 T01870129  RH  069%=      5-min Rain = 0
KRO1 231530Z 23014KT 19/13 A3003 RMK A01 T01870128  RH  069%=      5-min Rain = 0
KRO1 231531Z 23014KT 19/13 A3003 RMK A01 T01860127  RH  069%=      5-min Rain = 0
KRO1 231532Z 23014KT 19/13 A3003 RMK A01 T01870128  RH  069%=      5-min Rain = 0
KRO1 231533Z 24013KT 19/13 A3003 RMK A01 T01860129  RH  069%=      5-min Rain = 0
KRO1 231534Z 22014KT 19/13 A3003 RMK A01 T01860128  RH  069%=      5-min Rain = 0
KRO1 231535Z 22014KT 19/13 A3003 RMK A01 T01860126  RH  068%=      5-min Rain = 0
KRO1 231536Z 23013KT 19/13 A3003 RMK A01 T01870128  RH  068%=      5-min Rain = 0
KRO1 231537Z 23015KT 19/13 A3003 RMK A01 T01900129  RH  068%=      5-min Rain = 0
KRO1 231538Z 23014KT 19/13 A3003 RMK A01 T01900128  RH  067%=      5-min Rain = 0
KRO1 231539Z 23012KT 19/13 A3003 RMK A01 T01900127  RH  067%=      5-min Rain = 0
KRO1 231540Z 23014KT 19/13 A3003 RMK A01 T01910125  RH  066%=      5-min Rain = 0
KRO1 231541Z 23015KT 19/12 A3003 RMK A01 T01900123  RH  065%=      5-min Rain = 0
KRO1 231542Z 22013KT 19/12 A3003 RMK A01 T01890124  RH  066%=      5-min Rain = 0
KRO1 231543Z 22014KT 19/12 A3003 RMK A01 T01890124  RH  066%=      5-min Rain = 0
KRO1 231544Z 22016KT 19/12 A3002 RMK A01 T01890123  RH  065%=      5-min Rain = 0
KRO1 231545Z 22012KT 19/12 A3003 RMK A01 T01900123  RH  065%=      5-min Rain = 0
KRO1 231546Z 22014KT 19/13 A3003 RMK A01 T01910125  RH  066%=      5-min Rain = 0
KRO1 231547Z 23013KT 19/12 A3003 RMK A01 T01910124  RH  065%=      5-min Rain = 0
KRO1 231548Z 24012KT 19/13 A3003 RMK A01 T01910126  RH  066%=      5-min Rain = 0
KRO1 231549Z 23014KT 19/13 A3003 RMK A01 T01900125  RH  066%=      5-min Rain = 0
KRO1 231550Z 23012KT 19/13 A3003 RMK A01 T01900125  RH  066%=      5-min Rain = 0
KRO1 231551Z 23010KT 19/12 A3003 RMK A01 T01900124  RH  065%=      5-min Rain = 0
KRO1 231552Z 22011KT 19/12 A3003 RMK A01 T01900124  RH  066%=      5-min Rain = 0
KRO1 231553Z 22014KT 19/13 A3003 RMK A01 T01910126  RH  066%=      5-min Rain = 0
KRO1 231554Z 24014KT 19/12 A3003 RMK A01 T01940124  RH  064%=      5-min Rain = 0
KRO1 231555Z 24013KT 19/12 A3003 RMK A01 T01940120  RH  062%=      5-min Rain = 0
KRO1 231556Z 25013KT 19/12 A3003 RMK A01 T01930119  RH  062%=      5-min Rain = 0
KRO1 231557Z 25013KT 19/12 A3003 RMK A01 T01930120  RH  062%=      5-min Rain = 0
KRO1 231558Z 23013KT 19/12 A3003 RMK A01 T01940121  RH  063%=      5-min Rain = 0
KRO1 231559Z 23013KT 19/12 A3003 RMK A01 T01940120  RH  062%=      5-min Rain = 0
KRO1 231600Z 23014KT 19/12 A3003 RMK A01 T01940119  RH  062%=      5-min Rain = 0
KRO1 231601Z 23012KT 20/12 A3003 RMK A01 T01950117  RH  061%=      5-min Rain = 0
KRO1 231602Z 22014KT 20/12 A3003 RMK A01 T01950117  RH  060%=      5-min Rain = 0
KRO1 231603Z 23012KT 20/12 A3003 RMK A01 T01950115  RH  060%=      5-min Rain = 0
KRO1 231604Z 24011KT 20/12 A3003 RMK A01 T01950118  RH  061%=      5-min Rain = 0
KRO1 231605Z 25014KT 20/12 A3002 RMK A01 T01970116  RH  059%=      5-min Rain = 0
KRO1 231606Z 24015KT 20/11 A3002 RMK A01 T01970110  RH  057%=      5-min Rain = 0
KRO1 231607Z 24013KT 20/11 A3003 RMK A01 T01970111  RH  057%=      5-min Rain = 0
KRO1 231608Z 25010KT 20/11 A3003 RMK A01 T01950114  RH  059%=      5-min Rain = 0
KRO1 231609Z 25011KT 19/11 A3003 RMK A01 T01940114  RH  060%=      5-min Rain = 0
KRO1 231610Z 24012KT 20/11 A3003 RMK A01 T01960109  RH  057%=      5-min Rain = 0
KRO1 231611Z 26011KT 20/09 A3003 RMK A01 T01980093  RH  051%=      5-min Rain = 0
KRO1 231612Z 26011KT 20/09 A3003 RMK A01 T02000093  RH  050%=      5-min Rain = 0
KRO1 231613Z 26012KT 20/10 A3003 RMK A01 T02010098  RH  051%=      5-min Rain = 0
KRO1 231614Z 24014KT 20/09 A3003 RMK A01 T02010088  RH  048%=      5-min Rain = 0
KRO1 231615Z 25014KT 20/09 A3003 RMK A01 T02000089  RH  049%=      5-min Rain = 0
KRO1 231616Z 25010KT 20/09 A3003 RMK A01 T02000085  RH  047%=      5-min Rain = 0
KRO1 231617Z 24009KT 20/08 A3003 RMK A01 T01990081  RH  046%=      5-min Rain = 0
KRO1 231618Z 24006KT 20/08 A3003 RMK A01 T02000081  RH  046%=      5-min Rain = 0
KRO1 231619Z 25008KT 20/09 A3003 RMK A01 T01990089  RH  049%=      5-min Rain = 0
KRO1 231620Z 26013KT 20/09 A3003 RMK A01 T02000093  RH  050%=      5-min Rain = 0
KRO1 231621Z 27010KT 20/09 A3003 RMK A01 T02010090  RH  049%=      5-min Rain = 0
KRO1 231622Z 27008KT 20/09 A3003 RMK A01 T02010089  RH  049%=      5-min Rain = 0
KRO1 231623Z 25009KT 20/09 A3003 RMK A01 T02000093  RH  050%=      5-min Rain = 0
KRO1 231624Z 27010KT 20/09 A3003 RMK A01 T02010093  RH  050%=      5-min Rain = 0
KRO1 231625Z 27009KT 20/09 A3003 RMK A01 T02020092  RH  049%=      5-min Rain = 0
KRO1 231626Z 24008KT 20/09 A3003 RMK A01 T02020094  RH  050%=      5-min Rain = 0
KRO1 231627Z 24013KT 20/09 A3002 RMK A01 T02020092  RH  049%=      5-min Rain = 0
KRO1 231628Z 24012KT 20/08 A3002 RMK A01 T02030084  RH  046%=      5-min Rain = 0
KRO1 231629Z 26009KT 20/08 A3002 RMK A01 T02030081  RH  045%=      5-min Rain = 0
KRO1 231630Z 26006KT 20/08 A3002 RMK A01 T02010076  RH  044%=      5-min Rain = 0
KRO1 231631Z 25008KT 20/09 A3002 RMK A01 T02000087  RH  048%=      5-min Rain = 0
KRO1 231632Z 26010KT 20/09 A3002 RMK A01 T02010085  RH  047%=      5-min Rain = 0
KRO1 231633Z 26008KT 20/08 A3002 RMK A01 T02010082  RH  046%=      5-min Rain = 0
KRO1 231634Z 26010KT 20/09 A3002 RMK A01 T02010086  RH  047%=      5-min Rain = 0
KRO1 231635Z 27009KT 20/08 A3002 RMK A01 T02010083  RH  046%=      5-min Rain = 0
KRO1 231636Z 25010G15KT 20/09 A3002 RMK A01 T02000085  RH  047%=      5-min Rain = 0
KRO1 231637Z 26011KT 20/08 A3002 RMK A01 T02020083  RH  046%=      5-min Rain = 0
KRO1 231638Z 27007KT 21/08 A3002 RMK A01 T02050081  RH  045%=      5-min Rain = 0
KRO1 231639Z 25009KT 21/08 A3002 RMK A01 T02060081  RH  044%=      5-min Rain = 0
KRO1 231640Z 26011KT 21/07 A3003 RMK A01 T02060074  RH  042%=      5-min Rain = 0
KRO1 231641Z 25010KT 21/08 A3003 RMK A01 T02060075  RH  043%=      5-min Rain = 0
KRO1 231642Z 25011KT 21/07 A3002 RMK A01 T02060074  RH  042%=      5-min Rain = 0
KRO1 231643Z 25010KT 21/07 A3003 RMK A01 T02060074  RH  042%=      5-min Rain = 0
KRO1 231644Z 26010KT 21/08 A3002 RMK A01 T02060075  RH  043%=      5-min Rain = 0
KRO1 231645Z 23009KT 21/08 A3002 RMK A01 T02060075  RH  043%=      5-min Rain = 0
KRO1 231646Z 24008KT 21/07 A3002 RMK A01 T02080074  RH  042%=      5-min Rain = 0
KRO1 231647Z 27011KT 21/07 A3002 RMK A01 T02090070  RH  040%=      5-min Rain = 0
KRO1 231648Z 26013KT 21/06 A3002 RMK A01 T02120063  RH  038%=      5-min Rain = 0
KRO1 231649Z 27011KT 21/06 A3002 RMK A01 T02110057  RH  037%=      5-min Rain = 0
KRO1 231650Z 26012KT 21/06 A3002 RMK A01 T02090056  RH  037%=      5-min Rain = 0
KRO1 231651Z 26010KT 21/05 A3003 RMK A01 T02080054  RH  036%=      5-min Rain = 0
KRO1 231652Z 26012KT 21/06 A3002 RMK A01 T02080059  RH  038%=      5-min Rain = 0
KRO1 231653Z 26011KT 21/07 A3003 RMK A01 T02090066  RH  040%=      5-min Rain = 0
KRO1 231654Z 25009KT 21/07 A3002 RMK A01 T02110066  RH  039%=      5-min Rain = 0
KRO1 231655Z 28011KT 21/07 A3002 RMK A01 T02110067  RH  039%=      5-min Rain = 0
KRO1 231656Z 29012KT 21/06 A3002 RMK A01 T02130064  RH  038%=      5-min Rain = 0
KRO1 231657Z 25012KT 21/06 A3002 RMK A01 T02130064  RH  038%=      5-min Rain = 0
KRO1 231658Z 26013KT 21/07 A3002 RMK A01 T02140065  RH  038%=      5-min Rain = 0
KRO1 231659Z 27011KT 21/06 A3002 RMK A01 T02140060  RH  037%=      5-min Rain = 0
KRO1 231700Z 26011KT 21/06 A3002 RMK A01 T02110063  RH  038%=      5-min Rain = 0
KRO1 231701Z 25011KT 21/06 A3002 RMK A01 T02110061  RH  038%=      5-min Rain = 0
KRO1 231702Z 27010KT 21/07 A3002 RMK A01 T02110065  RH  039%=      5-min Rain = 0
KRO1 231703Z 26007KT 21/06 A3002 RMK A01 T02110063  RH  038%=      5-min Rain = 0
KRO1 231704Z 27009KT 21/06 A3002 RMK A01 T02110061  RH  038%=      5-min Rain = 0
KRO1 231705Z 27010KT 21/06 A3002 RMK A01 T02100063  RH  038%=      5-min Rain = 0
KRO1 231706Z 26009KT 21/06 A3002 RMK A01 T02100063  RH  038%=      5-min Rain = 0
KRO1 231707Z 25007KT 21/07 A3002 RMK A01 T02100065  RH  039%=      5-min Rain = 0
KRO1 231708Z 27004KT 21/06 A3002 RMK A01 T02100064  RH  039%=      5-min Rain = 0
KRO1 231709Z 26010KT 21/07 A3002 RMK A01 T02110068  RH  040%=      5-min Rain = 0
KRO1 231710Z 25011KT 21/07 A3002 RMK A01 T02120067  RH  039%=      5-min Rain = 0
KRO1 231711Z 23010KT 21/07 A3002 RMK A01 T02110066  RH  039%=      5-min Rain = 0
KRO1 231712Z 23010KT 21/07 A3002 RMK A01 T02110067  RH  039%=      5-min Rain = 0
KRO1 231713Z 24009KT 21/07 A3002 RMK A01 T02140068  RH  039%=      5-min Rain = 0
KRO1 231714Z 24008KT 21/06 A3002 RMK A01 T02140064  RH  038%=      5-min Rain = 0
KRO1 231715Z 24007KT 21/07 A3002 RMK A01 T02120065  RH  038%=      5-min Rain = 0
KRO1 231716Z 25007KT 21/07 A3002 RMK A01 T02110066  RH  039%=      5-min Rain = 0
KRO1 231717Z 24011KT 21/07 A3002 RMK A01 T02130067  RH  039%=      5-min Rain = 0
KRO1 231718Z 24011KT 22/07 A3002 RMK A01 T02160070  RH  039%=      5-min Rain = 0
KRO1 231719Z 24012KT 22/07 A3002 RMK A01 T02160067  RH  038%=      5-min Rain = 0
KRO1 231720Z 26010KT 22/07 A3002 RMK A01 T02160068  RH  038%=      5-min Rain = 0
KRO1 231721Z 25013KT 22/07 A3002 RMK A01 T02160069  RH  039%=      5-min Rain = 0
KRO1 231722Z 25012KT 22/07 A3002 RMK A01 T02160067  RH  038%=      5-min Rain = 0
KRO1 231723Z 24011KT 22/07 A3002 RMK A01 T02160068  RH  038%=      5-min Rain = 0
KRO1 231724Z 24011KT 22/07 A3002 RMK A01 T02150070  RH  039%=      5-min Rain = 0
KRO1 231725Z 25010KT 21/07 A3002 RMK A01 T02140069  RH  039%=      5-min Rain = 0
KRO1 231726Z 25005KT 21/07 A3002 RMK A01 T02130068  RH  039%=      5-min Rain = 0
KRO1 231727Z 26006KT 21/07 A3002 RMK A01 T02120071  RH  040%=      5-min Rain = 0
KRO1 231728Z 24012KT 21/07 A3002 RMK A01 T02120069  RH  040%=      5-min Rain = 0
KRO1 231729Z 26010KT 22/07 A3002 RMK A01 T02150072  RH  039%=      5-min Rain = 0
KRO1 231730Z 24012KT 22/07 A3002 RMK A01 T02180065  RH  037%=      5-min Rain = 0
KRO1 231731Z 23011KT 22/06 A3002 RMK A01 T02180064  RH  037%=      5-min Rain = 0
KRO1 231732Z 24011KT 22/07 A3002 RMK A01 T02180066  RH  037%=      5-min Rain = 0
KRO1 231733Z 25010KT 22/07 A3001 RMK A01 T02180067  RH  038%=      5-min Rain = 0
KRO1 231734Z 26006KT 22/07 A3001 RMK A01 T02170066  RH  038%=      5-min Rain = 0
KRO1 231735Z 24008KT 22/07 A3001 RMK A01 T02160071  RH  039%=      5-min Rain = 0
KRO1 231736Z 25011KT 22/07 A3001 RMK A01 T02200067  RH  037%=      5-min Rain = 0
KRO1 231737Z 27011KT 22/06 A3001 RMK A01 T02220063  RH  036%=      5-min Rain = 0
KRO1 231738Z 26008KT 22/06 A3001 RMK A01 T02210058  RH  035%=      5-min Rain = 0
KRO1 231739Z 27007KT 22/06 A3001 RMK A01 T02180064  RH  037%=      5-min Rain = 0
KRO1 231740Z 25010KT 22/06 A3001 RMK A01 T02180063  RH  036%=      5-min Rain = 0
KRO1 231741Z 25007KT 22/06 A3001 RMK A01 T02200055  RH  034%=      5-min Rain = 0
KRO1 231742Z 24010KT 22/06 A3001 RMK A01 T02190056  RH  035%=      5-min Rain = 0
KRO1 231743Z 25011KT 22/06 A3001 RMK A01 T02200057  RH  035%=      5-min Rain = 0
KRO1 231744Z 25010KT 22/06 A3001 RMK A01 T02190056  RH  035%=      5-min Rain = 0
KRO1 231745Z 25008KT 22/06 A3001 RMK A01 T02200055  RH  034%=      5-min Rain = 0
KRO1 231746Z 25007KT 22/05 A3001 RMK A01 T02190054  RH  034%=      5-min Rain = 0
KRO1 231747Z 24008KT 22/05 A3001 RMK A01 T02170054  RH  035%=      5-min Rain = 0
KRO1 231748Z 23006KT 22/06 A3001 RMK A01 T02150055  RH  035%=      5-min Rain = 0
KRO1 231749Z 23008KT 22/06 A3001 RMK A01 T02150058  RH  036%=      5-min Rain = 0
KRO1 231750Z 23009KT 22/05 A3001 RMK A01 T02170053  RH  034%=      5-min Rain = 0
KRO1 231751Z 22008KT 22/05 A3001 RMK A01 T02180051  RH  034%=      5-min Rain = 0
KRO1 231752Z 22009KT 22/06 A3001 RMK A01 T02210055  RH  034%=      5-min Rain = 0
KRO1 231753Z 23011KT 22/04 A3001 RMK A01 T02240044  RH  031%=      5-min Rain = 0
KRO1 231754Z 23013KT 23/04 A3001 RMK A01 T02250041  RH  030%=      5-min Rain = 0
KRO1 231755Z 23012KT 22/04 A3001 RMK A01 T02240039  RH  030%=      5-min Rain = 0
KRO1 231756Z 23011KT 22/05 A3001 RMK A01 T02230045  RH  031%=      5-min Rain = 0
KRO1 231757Z 22012KT 23/04 A30 RMK A01 T02260039  RH  030%=      5-min Rain = 0
KRO1 231758Z 23009KT 23/04 A3001 RMK A01 T02260036  RH  029%=      5-min Rain = 0
KRO1 231759Z 22006KT 23/03 A3001 RMK A01 T02260034  RH  029%=      5-min Rain = 0
KRO1 231800Z 24005KT 22/04 A30 RMK A01 T02240038  RH  030%=      5-min Rain = 0
KRO1 231801Z 25009G15KT 23/04 A30 RMK A01 T02260042  RH  030%=      5-min Rain = 0
KRO1 231802Z 27012KT 23/03 A30 RMK A01 T02290034  RH  028%=      5-min Rain = 0
KRO1 231803Z 28010KT 23/03 A30 RMK A01 T02280027  RH  027%=      5-min Rain = 0
KRO1 231804Z 28008KT 23/03 A30 RMK A01 T02250030  RH  028%=      5-min Rain = 0
KRO1 231805Z 23010KT 23/04 A30 RMK A01 T02250037  RH  029%=      5-min Rain = 0
KRO1 231806Z 24009KT 23/04 A3001 RMK A01 T02270040  RH  029%=      5-min Rain = 0
KRO1 231807Z 25007KT 23/04 A3001 RMK A01 T02270035  RH  028%=      5-min Rain = 0
KRO1 231808Z 24004KT 22/04 A3001 RMK A01 T02240038  RH  030%=      5-min Rain = 0
KRO1 231809Z 24004KT 22/04 A30 RMK A01 T02240035  RH  029%=      5-min Rain = 0
KRO1 231810Z 24005KT 22/04 A30 RMK A01 T02230036  RH  029%=      5-min Rain = 0
KRO1 231811Z 22008G15KT 22/04 A30 RMK A01 T02240035  RH  029%=      5-min Rain = 0
KRO1 231812Z 24012KT 23/03 A30 RMK A01 T02280034  RH  028%=      5-min Rain = 0
KRO1 231813Z 24010KT 23/03 A30 RMK A01 T02300031  RH  027%=      5-min Rain = 0
KRO1 231814Z 24007KT 23/03 A30 RMK A01 T02290028  RH  027%=      5-min Rain = 0
KRO1 231815Z 25005KT 23/03 A30 RMK A01 T02270028  RH  027%=      5-min Rain = 0
KRO1 231816Z 26006KT 23/03 A30 RMK A01 T02270027  RH  027%=      5-min Rain = 0
KRO1 231817Z 23004KT 23/03 A30 RMK A01 T02270027  RH  027%=      5-min Rain = 0
KRO1 231818Z 22004KT 23/03 A30 RMK A01 T02260026  RH  027%=      5-min Rain = 0
KRO1 231819Z 23007KT 23/03 A30 RMK A01 T02260027  RH  027%=      5-min Rain = 0
KRO1 231820Z 24007KT 23/03 A30 RMK A01 T02270029  RH  027%=      5-min Rain = 0
KRO1 231821Z 28009KT 23/02 A30 RMK A01 T02300020  RH  025%=      5-min Rain = 0
KRO1 231822Z 30010KT 23/01 A30 RMK A01 T02320011  RH  023%=      5-min Rain = 0
KRO1 231823Z 29008KT 23/01 A30 RMK A01 T02320010  RH  023%=      5-min Rain = 0
KRO1 231824Z 28007KT 23/01 A30 RMK A01 T02300009  RH  023%=      5-min Rain = 0
KRO1 231825Z 27008KT 23/01 A30 RMK A01 T02310009  RH  023%=      5-min Rain = 0
KRO1 231826Z 27007KT 23/01 A30 RMK A01 T02310006  RH  023%=      5-min Rain = 0
KRO1 231827Z 27011G16KT 23/01 A30 RMK A01 T02320011  RH  023%=      5-min Rain = 0
KRO1 231828Z 26012KT 24/01 A30 RMK A01 T02350005  RH  022%=      5-min Rain = 0
KRO1 231829Z 27011KT 23/01 A30 RMK A01 T02340005  RH  022%=      5-min Rain = 0
KRO1 231830Z 28009KT 23/00 A30 RMK A01 T02320004  RH  022%=      5-min Rain = 0
KRO1 231831Z 28009KT 23/00 A30 RMK A01 T02320001  RH  022%=      5-min Rain = 0
KRO1 231832Z 28005KT 23/M00 A30 RMK A01 T02291001  RH  022%=      5-min Rain = 0
KRO1 231833Z 25006KT 23/01 A30 RMK A01 T02280005  RH  023%=      5-min Rain = 0
KRO1 231834Z 23009KT 23/01 A30 RMK A01 T02300005  RH  023%=      5-min Rain = 0
KRO1 231835Z 22008KT 23/01 A30 RMK A01 T02310005  RH  022%=      5-min Rain = 0
KRO1 231836Z 25006KT 23/01 A30 RMK A01 T02310005  RH  022%=      5-min Rain = 0
KRO1 231837Z 26008KT 23/01 A30 RMK A01 T02330010  RH  023%=      5-min Rain = 0
KRO1 231838Z 24007G14KT 23/00 A30 RMK A01 T02320002  RH  022%=      5-min Rain = 0
KRO1 231839Z 24013KT 23/00 A2999 RMK A01 T02310003  RH  022%=      5-min Rain = 0
KRO1 231840Z 24013KT 23/01 A2999 RMK A01 T02340005  RH  022%=      5-min Rain = 0
KRO1 231841Z 23013KT 24/00 A2999 RMK A01 T02360003  RH  021%=      5-min Rain = 0
KRO1 231842Z 24011KT 24/01 A30 RMK A01 T02380005  RH  021%=      5-min Rain = 0
KRO1 231843Z 24011KT 24/00 A30 RMK A01 T02390001  RH  021%=      5-min Rain = 0
KRO1 231844Z 25010KT 24/M00 A30 RMK A01 T02351002  RH  021%=      5-min Rain = 0
KRO1 231845Z 25009KT 23/00 A30 RMK A01 T02340001  RH  021%=      5-min Rain = 0
KRO1 231846Z 26006KT 24/M00 A2999 RMK A01 T02351002  RH  021%=      5-min Rain = 0
KRO1 231847Z 24008KT 24/00 A2999 RMK A01 T02350003  RH  021%=      5-min Rain = 0
KRO1 231848Z 24011KT 24/00 A2999 RMK A01 T023500-0  RH  021%=      5-min Rain = 0
KRO1 231849Z 25015KT 24/00 A2999 RMK A01 T02350002  RH  021%=      5-min Rain = 0
KRO1 231850Z 24014KT 24/00 A2999 RMK A01 T023700-0  RH  021%=      5-min Rain = 0
KRO1 231851Z 24012KT 24/01 A2999 RMK A01 T02360005  RH  022%=      5-min Rain = 0
KRO1 231852Z 24009KT 24/01 A2999 RMK A01 T02350006  RH  022%=      5-min Rain = 0
KRO1 231853Z 25011KT 24/01 A2999 RMK A01 T02370007  RH  022%=      5-min Rain = 0
KRO1 231854Z 25010KT 24/01 A2999 RMK A01 T02370008  RH  022%=      5-min Rain = 0
KRO1 231855Z 25014KT 24/00 A2999 RMK A01 T02390003  RH  021%=      5-min Rain = 0
KRO1 231856Z 24010KT 24/00 A2999 RMK A01 T02400002  RH  021%=      5-min Rain = 0
KRO1 231857Z 25010KT 24/00 A2999 RMK A01 T02390000  RH  021%=      5-min Rain = 0
KRO1 231858Z 26009G14KT 24/00 A2999 RMK A01 T02380000  RH  021%=      5-min Rain = 0
KRO1 231859Z 25009KT 24/00 A2999 RMK A01 T02360001  RH  021%=      5-min Rain = 0
KRO1 231900Z 25012KT 24/01 A2999 RMK A01 T02350005  RH  022%=      5-min Rain = 0
KRO1 231901Z 25011KT 24/00 A2999 RMK A01 T02360004  RH  022%=      5-min Rain = 0
KRO1 231902Z 26011KT 24/01 A2999 RMK A01 T02360005  RH  022%=      5-min Rain = 0
KRO1 231903Z 27010KT 24/01 A2999 RMK A01 T02360006  RH  022%=      5-min Rain = 0
KRO1 231904Z 28006KT 23/00 A2999 RMK A01 T02330002  RH  022%=      5-min Rain = 0
KRO1 231905Z 25008KT 23/01 A2999 RMK A01 T02310006  RH  023%=      5-min Rain = 0
KRO1 231906Z 22009KT 23/01 A2998 RMK A01 T02320005  RH  022%=      5-min Rain = 0
KRO1 231907Z 22009KT 23/00 A2998 RMK A01 T02340004  RH  022%=      5-min Rain = 0
KRO1 231908Z 23006KT 23/00 A2998 RMK A01 T02340003  RH  022%=      5-min Rain = 0
KRO1 231909Z 23011KT 23/01 A2998 RMK A01 T02340005  RH  022%=      5-min Rain = 0
KRO1 231910Z 23009KT 24/00 A2998 RMK A01 T02360004  RH  022%=      5-min Rain = 0
KRO1 231911Z 23009KT 24/01 A2998 RMK A01 T02360005  RH  022%=      5-min Rain = 0
KRO1 231912Z 24009KT 24/01 A2998 RMK A01 T02360007  RH  022%=      5-min Rain = 0
KRO1 231913Z 23007KT 24/00 A2998 RMK A01 T02360002  RH  021%=      5-min Rain = 0
KRO1 231914Z 20005KT 23/00 A2998 RMK A01 T02330002  RH  022%=      5-min Rain = 0
KRO1 231915Z 22002KT 23/01 A2998 RMK A01 T02340008  RH  023%=      5-min Rain = 0
KRO1 231916Z 23004KT 24/01 A2998 RMK A01 T02370006  RH  022%=      5-min Rain = 0
KRO1 231917Z 27006G12KT 24/01 A2998 RMK A01 T02380007  RH  022%=      5-min Rain = 0
KRO1 231918Z 25013KT 24/00 A2998 RMK A01 T02390004  RH  021%=      5-min Rain = 0
KRO1 231919Z 25013KT 24/00 A2998 RMK A01 T02410002  RH  021%=      5-min Rain = 0
KRO1 231920Z 24011KT 24/00 A2998 RMK A01 T02400003  RH  021%=      5-min Rain = 0
KRO1 231921Z 23007KT 24/00 A2998 RMK A01 T02400003  RH  021%=      5-min Rain = 0
KRO1 231922Z 22006KT 24/00 A2998 RMK A01 T02400001  RH  021%=      5-min Rain = 0
KRO1 231923Z 24008KT 24/00 A2998 RMK A01 T02390002  RH  021%=      5-min Rain = 0
KRO1 231924Z 25009KT 24/00 A2998 RMK A01 T024200-0  RH  020%=      5-min Rain = 0
KRO1 231925Z 25011KT 24/M01 A2997 RMK A01 T02441009  RH  019%=      5-min Rain = 0
KRO1 231926Z 26014KT 24/M01 A2997 RMK A01 T02441012  RH  018%=      5-min Rain = 0
KRO1 231927Z 25011KT 24/M01 A2997 RMK A01 T02441013  RH  018%=      5-min Rain = 0
KRO1 231928Z 22009KT 24/M02 A2997 RMK A01 T02441019  RH  017%=      5-min Rain = 0
KRO1 231929Z 22009KT 24/M01 A2997 RMK A01 T02431012  RH  018%=      5-min Rain = 0
KRO1 231930Z 25011KT 24/M02 A2997 RMK A01 T02431019  RH  018%=      5-min Rain = 0
KRO1 231931Z 26010KT 24/M02 A2997 RMK A01 T02421016  RH  018%=      5-min Rain = 0
KRO1 231932Z 26012KT 24/M01 A2997 RMK A01 T02431011  RH  019%=      5-min Rain = 0
KRO1 231933Z 25012KT 25/M01 A2997 RMK A01 T02451014  RH  018%=      5-min Rain = 0
KRO1 231934Z 25009KT 25/M02 A2997 RMK A01 T02451016  RH  018%=      5-min Rain = 0
KRO1 231935Z 26009KT 25/M02 A2997 RMK A01 T02451015  RH  018%=      5-min Rain = 0
KRO1 231936Z 24008KT 24/M02 A2997 RMK A01 T02421018  RH  018%=      5-min Rain = 0
KRO1 231937Z 25009KT 24/M01 A2997 RMK A01 T02421014  RH  018%=      5-min Rain = 0
KRO1 231938Z 26010KT 24/M01 A2997 RMK A01 T02431014  RH  018%=      5-min Rain = 0
KRO1 231939Z 24009KT 24/M01 A2997 RMK A01 T02441009  RH  019%=      5-min Rain = 0
KRO1 231940Z 23011G17KT 25/M01 A2997 RMK A01 T02461009  RH  019%=      5-min Rain = 0
KRO1 231941Z 23015KT 25/M01 A2997 RMK A01 T02481008  RH  018%=      5-min Rain = 0
KRO1 231942Z 23012KT 25/M01 A2997 RMK A01 T02471013  RH  018%=      5-min Rain = 0
KRO1 231943Z 24011KT 25/M01 A2997 RMK A01 T02451011  RH  018%=      5-min Rain = 0
KRO1 231944Z 23010KT 24/M01 A2997 RMK A01 T02421012  RH  018%=      5-min Rain = 0
KRO1 231945Z 23010KT 24/M01 A2997 RMK A01 T02441011  RH  019%=      5-min Rain = 0
KRO1 231946Z 23010KT 24/M01 A2997 RMK A01 T02441013  RH  018%=      5-min Rain = 0
KRO1 231947Z 22010KT 24/M02 A2996 RMK A01 T02441017  RH  018%=      5-min Rain = 0
KRO1 231948Z 21011KT 24/M01 A2996 RMK A01 T02441012  RH  018%=      5-min Rain = 0
KRO1 231949Z 21009KT 25/M01 A2996 RMK A01 T02461009  RH  019%=      5-min Rain = 0
KRO1 231950Z 24012G17KT 25/M01 A2996 RMK A01 T02471011  RH  018%=      5-min Rain = 0
KRO1 231951Z 21012KT 25/M01 A2996 RMK A01 T02471007  RH  019%=      5-min Rain = 0
KRO1 231952Z 24013KT 25/M01 A2996 RMK A01 T02491005  RH  019%=      5-min Rain = 0
KRO1 231953Z 24015KT 25/M01 A2996 RMK A01 T02511009  RH  018%=      5-min Rain = 0
KRO1 231954Z 23015KT 25/M01 A2996 RMK A01 T02511009  RH  018%=      5-min Rain = 0
KRO1 231955Z 25013KT 25/M01 A2996 RMK A01 T02511008  RH  018%=      5-min Rain = 0
KRO1 231956Z 25011KT 25/M02 A2996 RMK A01 T02511015  RH  017%=      5-min Rain = 0
KRO1 231957Z 25011KT 25/M02 A2996 RMK A01 T02511017  RH  017%=      5-min Rain = 0
KRO1 231958Z 24011KT 25/M01 A2996 RMK A01 T02501011  RH  018%=      5-min Rain = 0
KRO1 231959Z 23008KT 25/M02 A2996 RMK A01 T02501016  RH  017%=      5-min Rain = 0
KRO1 232000Z 25011KT 25/M01 A2996 RMK A01 T02481008  RH  018%=      5-min Rain = 0
KRO1 232001Z 25012KT 25/M02 A2996 RMK A01 T02491015  RH  017%=      5-min Rain = 0
KRO1 232002Z 24013KT 25/M02 A2996 RMK A01 T02481015  RH  018%=      5-min Rain = 0
KRO1 232003Z 24010KT 25/M02 A2996 RMK A01 T02471018  RH  017%=      5-min Rain = 0
KRO1 232004Z 25008KT 25/M02 A2996 RMK A01 T02471015  RH  018%=      5-min Rain = 0
KRO1 232005Z 24012KT 25/M02 A2996 RMK A01 T02471015  RH  018%=      5-min Rain = 0
KRO1 232006Z 25011KT 25/M02 A2996 RMK A01 T02461019  RH  017%=      5-min Rain = 0
KRO1 232007Z 24011KT 24/M02 A2996 RMK A01 T02441017  RH  018%=      5-min Rain = 0
KRO1 232008Z 25007KT 24/M02 A2996 RMK A01 T02441019  RH  017%=      5-min Rain = 0
KRO1 232009Z 25004KT 24/M02 A2996 RMK A01 T02431020  RH  017%=      5-min Rain = 0
KRO1 232010Z 26005KT 24/M02 A2996 RMK A01 T02431017  RH  018%=      5-min Rain = 0
KRO1 232011Z 24006KT 25/M01 A2996 RMK A01 T02451014  RH  018%=      5-min Rain = 0
KRO1 232012Z 22007KT 25/M02 A2996 RMK A01 T02471016  RH  017%=      5-min Rain = 0
KRO1 232013Z 22010KT 25/M01 A2996 RMK A01 T02481007  RH  019%=      5-min Rain = 0
KRO1 232014Z 21007KT 25/M01 A2996 RMK A01 T02501007  RH  018%=      5-min Rain = 0
KRO1 232015Z 20010KT 25/M01 A2996 RMK A01 T02511005  RH  018%=      5-min Rain = 0
KRO1 232016Z 24012KT 25/M01 A2996 RMK A01 T02521007  RH  018%=      5-min Rain = 0
KRO1 232017Z 25013KT 25/M02 A2996 RMK A01 T02521017  RH  017%=      5-min Rain = 0
KRO1 232018Z 24012KT 25/M02 A2996 RMK A01 T02521020  RH  017%=      5-min Rain = 0
KRO1 232019Z 26017G24KT 25/M02 A2996 RMK A01 T02501023  RH  016%=      5-min Rain = 0
KRO1 232020Z 26019KT 25/M03 A2996 RMK A01 T02521027  RH  016%=      5-min Rain = 0
KRO1 232021Z 25018KT 26/M03 A2996 RMK A01 T02551028  RH  015%=      5-min Rain = 0
KRO1 232022Z 26017KT 26/M03 A2996 RMK A01 T02551026  RH  016%=      5-min Rain = 0
KRO1 232023Z 26015KT 26/M03 A2996 RMK A01 T02561027  RH  015%=      5-min Rain = 0
KRO1 232024Z 26015KT 26/M03 A2996 RMK A01 T02561032  RH  015%=      5-min Rain = 0
KRO1 232025Z 25013KT 25/M03 A2996 RMK A01 T02531029  RH  015%=      5-min Rain = 0
KRO1 232026Z 24014KT 25/M03 A2996 RMK A01 T02531030  RH  015%=      5-min Rain = 0
KRO1 232027Z 24011KT 25/M03 A2996 RMK A01 T02521031  RH  015%=      5-min Rain = 0
KRO1 232028Z 24010KT 25/M03 A2996 RMK A01 T02511029  RH  016%=      5-min Rain = 0
KRO1 232029Z 24010KT 25/M03 A2996 RMK A01 T02501025  RH  016%=      5-min Rain = 0
KRO1 232030Z 26010KT 25/M02 A2996 RMK A01 T02521021  RH  016%=      5-min Rain = 0
KRO1 232031Z 25012KT 25/M02 A2996 RMK A01 T02531022  RH  016%=      5-min Rain = 0
KRO1 232032Z 25010KT 25/M03 A2996 RMK A01 T02531026  RH  016%=      5-min Rain = 0
KRO1 232033Z 25018KT 25/M03 A2995 RMK A01 T02511026  RH  016%=      5-min Rain = 0
KRO1 232034Z 24015KT 25/M03 A2996 RMK A01 T02541028  RH  015%=      5-min Rain = 0
KRO1 232035Z 23013KT 26/M03 A2996 RMK A01 T02551026  RH  015%=      5-min Rain = 0
KRO1 232036Z 25014KT 26/M03 A2996 RMK A01 T02561026  RH  015%=      5-min Rain = 0
KRO1 232037Z 25011KT 26/M03 A2996 RMK A01 T02551031  RH  015%=      5-min Rain = 0
KRO1 232038Z 25013KT 25/M03 A2995 RMK A01 T02521032  RH  015%=      5-min Rain = 0
KRO1 232039Z 24017KT 25/M03 A2995 RMK A01 T02511030  RH  015%=      5-min Rain = 0
KRO1 232040Z 23014KT 25/M03 A2995 RMK A01 T02511032  RH  015%=      5-min Rain = 0
KRO1 232041Z 23012KT 25/M02 A2996 RMK A01 T02511023  RH  016%=      5-min Rain = 0
KRO1 232042Z 23011KT 25/M03 A2996 RMK A01 T02541026  RH  016%=      5-min Rain = 0
KRO1 232043Z 24012KT 25/M03 A2995 RMK A01 T02521028  RH  016%=      5-min Rain = 0
KRO1 232044Z 24015KT 25/M02 A2995 RMK A01 T02511023  RH  016%=      5-min Rain = 0
KRO1 232045Z 25015KT 26/M02 A2995 RMK A01 T02551024  RH  016%=      5-min Rain = 0
KRO1 232046Z 26013G19KT 25/M02 A2995 RMK A01 T02541024  RH  016%=      5-min Rain = 0
KRO1 232047Z 26015KT 25/M02 A2995 RMK A01 T02541023  RH  016%=      5-min Rain = 0
KRO1 232048Z 25015G20KT 25/M02 A2995 RMK A01 T02531022  RH  016%=      5-min Rain = 0
KRO1 232049Z 23016KT 25/M02 A2995 RMK A01 T02541022  RH  016%=      5-min Rain = 0
KRO1 232050Z 22016KT 26/M02 A2995 RMK A01 T02561021  RH  016%=      5-min Rain = 0
KRO1 232051Z 22014KT 26/M02 A2995 RMK A01 T02581021  RH  016%=      5-min Rain = 0
KRO1 232052Z 23012KT 26/M03 A2995 RMK A01 T02561026  RH  015%=      5-min Rain = 0
KRO1 232053Z 23013KT 25/M03 A2995 RMK A01 T02531026  RH  016%=      5-min Rain = 0
KRO1 232054Z 24015G20KT 26/M02 A2995 RMK A01 T02551023  RH  016%=      5-min Rain = 0
KRO1 232055Z 24020KT 26/M03 A2995 RMK A01 T02551030  RH  015%=      5-min Rain = 0
KRO1 232056Z 24019KT 25/M03 A2995 RMK A01 T02541034  RH  015%=      5-min Rain = 0
KRO1 232057Z 23016KT 25/M04 A2995 RMK A01 T02491035  RH  015%=      5-min Rain = 0
KRO1 232058Z 22015KT 25/M03 A2995 RMK A01 T02471033  RH  015%=      5-min Rain = 0
KRO1 232059Z 23015KT 25/M03 A2995 RMK A01 T02471031  RH  016%=      5-min Rain = 0
KRO1 232100Z 25015KT 25/M03 A2995 RMK A01 T02481028  RH  016%=      5-min Rain = 0
KRO1 232101Z 25016KT 25/M02 A2995 RMK A01 T02501024  RH  016%=      5-min Rain = 0
KRO1 232102Z 25015KT 25/M03 A2995 RMK A01 T02511031  RH  015%=      5-min Rain = 0
KRO1 232103Z 25014KT 25/M03 A2995 RMK A01 T02491032  RH  015%=      5-min Rain = 0
KRO1 232104Z 25016KT 25/M03 A2995 RMK A01 T02481031  RH  016%=      5-min Rain = 0
KRO1 232105Z 25016KT 25/M03 A2995 RMK A01 T02481030  RH  016%=      5-min Rain = 0
KRO1 232106Z 26016KT 25/M03 A2995 RMK A01 T02481030  RH  016%=      5-min Rain = 0
KRO1 232107Z 25015KT 25/M03 A2995 RMK A01 T02481029  RH  016%=      5-min Rain = 0
KRO1 232108Z 26013KT 25/M03 A2995 RMK A01 T02481029  RH  016%=      5-min Rain = 0
KRO1 232109Z 26013KT 25/M03 A2995 RMK A01 T02481030  RH  016%=      5-min Rain = 0
KRO1 232110Z 26012KT 25/M03 A2995 RMK A01 T02491034  RH  015%=      5-min Rain = 0
KRO1 232111Z 24011KT 25/M03 A2995 RMK A01 T02471033  RH  015%=      5-min Rain = 0
KRO1 232112Z 23013KT 25/M03 A2995 RMK A01 T02481031  RH  016%=      5-min Rain = 0
KRO1 232113Z 25015KT 25/M03 A2995 RMK A01 T02491027  RH  016%=      5-min Rain = 0
KRO1 232114Z 26015KT 25/M03 A2995 RMK A01 T02501030  RH  015%=      5-min Rain = 0
KRO1 232115Z 26015KT 25/M03 A2995 RMK A01 T02501026  RH  016%=      5-min Rain = 0
KRO1 232116Z 24015KT 25/M03 A2995 RMK A01 T02511030  RH  015%=      5-min Rain = 0
KRO1 232117Z 24014KT 25/M03 A2995 RMK A01 T02511032  RH  015%=      5-min Rain = 0
KRO1 232118Z 24017KT 25/M03 A2995 RMK A01 T02491031  RH  015%=      5-min Rain = 0
KRO1 232119Z 23016G21KT 25/M03 A2995 RMK A01 T02471028  RH  016%=      5-min Rain = 0
KRO1 232120Z 22019KT 25/M03 A2995 RMK A01 T02471032  RH  016%=      5-min Rain = 0
KRO1 232121Z 22018KT 25/M03 A2995 RMK A01 T02471033  RH  015%=      5-min Rain = 0
KRO1 232122Z 22015KT 25/M03 A2995 RMK A01 T02461033  RH  016%=      5-min Rain = 0
KRO1 232123Z 22015KT 25/M03 A2995 RMK A01 T02461032  RH  016%=      5-min Rain = 0
KRO1 232124Z 21015G20KT 24/M03 A2995 RMK A01 T02441032  RH  016%=      5-min Rain = 0
KRO1 232125Z 22015KT 24/M03 A2995 RMK A01 T02441028  RH  016%=      5-min Rain = 0
KRO1 232126Z 23014KT 24/M03 A2995 RMK A01 T02441032  RH  016%=      5-min Rain = 0
KRO1 232127Z 24013KT 24/M03 A2995 RMK A01 T02441030  RH  016%=      5-min Rain = 0
KRO1 232128Z 24013KT 24/M03 A2995 RMK A01 T02431032  RH  016%=      5-min Rain = 0
KRO1 232129Z 25013KT 24/M03 A2995 RMK A01 T02441029  RH  016%=      5-min Rain = 0
KRO1 232130Z 26014G19KT 25/M03 A2995 RMK A01 T02451031  RH  016%=      5-min Rain = 0
KRO1 232131Z 26016KT 25/M03 A2995 RMK A01 T02461029  RH  016%=      5-min Rain = 0
KRO1 232132Z 25015KT 25/M03 A2995 RMK A01 T02471030  RH  016%=      5-min Rain = 0
KRO1 232133Z 25015KT 25/M03 A2995 RMK A01 T02471032  RH  016%=      5-min Rain = 0
KRO1 232134Z 26015KT 25/M03 A2995 RMK A01 T02461032  RH  016%=      5-min Rain = 0
KRO1 232135Z 26014KT 25/M03 A2995 RMK A01 T02461029  RH  016%=      5-min Rain = 0
KRO1 232136Z 23014KT 25/M03 A2995 RMK A01 T02471029  RH  016%=      5-min Rain = 0
KRO1 232137Z 23015KT 25/M03 A2995 RMK A01 T02471031  RH  016%=      5-min Rain = 0
KRO1 232138Z 23013KT 25/M03 A2995 RMK A01 T02471032  RH  016%=      5-min Rain = 0
KRO1 232139Z 23014KT 25/M03 A2995 RMK A01 T02461030  RH  016%=      5-min Rain = 0
KRO1 232140Z 24016KT 25/M03 A2995 RMK A01 T02461031  RH  016%=      5-min Rain = 0
KRO1 232141Z 25017KT 25/M03 A2995 RMK A01 T02461031  RH  016%=      5-min Rain = 0
KRO1 232142Z 24017KT 25/M04 A2995 RMK A01 T02451035  RH  015%=      5-min Rain = 0
KRO1 232143Z 25018KT 24/M03 A2995 RMK A01 T02441034  RH  015%=      5-min Rain = 0
KRO1 232144Z 25016KT 24/M04 A2995 RMK A01 T02441035  RH  015%=      5-min Rain = 0
KRO1 232145Z 25016KT 24/M03 A2995 RMK A01 T02441032  RH  016%=      5-min Rain = 0
KRO1 232146Z 24019KT 25/M03 A2995 RMK A01 T02451031  RH  016%=      5-min Rain = 0
KRO1 232147Z 24019KT 25/M03 A2995 RMK A01 T02451033  RH  016%=      5-min Rain = 0
KRO1 232148Z 24015KT 24/M03 A2995 RMK A01 T02441030  RH  016%=      5-min Rain = 0
KRO1 232149Z 24014KT 24/M03 A2995 RMK A01 T02431026  RH  017%=      5-min Rain = 0
KRO1 232150Z 23016KT 24/M03 A2995 RMK A01 T02431032  RH  016%=      5-min Rain = 0
KRO1 232151Z 23015KT 24/M03 A2995 RMK A01 T02421031  RH  016%=      5-min Rain = 0
KRO1 232152Z 23015KT 24/M03 A2995 RMK A01 T02421032  RH  016%=      5-min Rain = 0
KRO1 232153Z 23015KT 24/M03 A2995 RMK A01 T02421030  RH  016%=      5-min Rain = 0
KRO1 232154Z 24016KT 24/M03 A2995 RMK A01 T02431032  RH  016%=      5-min Rain = 0
KRO1 232155Z 24018KT 24/M03 A2995 RMK A01 T02431034  RH  016%=      5-min Rain = 0
KRO1 232156Z 24019KT 24/M04 A2995 RMK A01 T02411037  RH  015%=      5-min Rain = 0
KRO1 232157Z 24018KT 24/M04 A2995 RMK A01 T02411037  RH  015%=      5-min Rain = 0
KRO1 232158Z 24019KT 24/M04 A2995 RMK A01 T02401038  RH  016%=      5-min Rain = 0
KRO1 232159Z 24018KT 24/M04 A2995 RMK A01 T02401036  RH  016%=      5-min Rain = 0
KRO1 232200Z 24016KT 24/M04 A2995 RMK A01 T02391037  RH  016%=      5-min Rain = 0
KRO1 232201Z 25016KT 24/M04 A2995 RMK A01 T02391036  RH  016%=      5-min Rain = 0
KRO1 232202Z 25015KT 24/M03 A2995 RMK A01 T02391034  RH  016%=      5-min Rain = 0
KRO1 232203Z 24013KT 24/M03 A2995 RMK A01 T02391034  RH  016%=      5-min Rain = 0
KRO1 232204Z 24013KT 24/M03 A2995 RMK A01 T02391034  RH  016%=      5-min Rain = 0
KRO1 232205Z 24015KT 24/M04 A2995 RMK A01 T02391035  RH  016%=      5-min Rain = 0
KRO1 232206Z 24016KT 24/M04 A2995 RMK A01 T02391035  RH  016%=      5-min Rain = 0
KRO1 232207Z 24016KT 24/M03 A2995 RMK A01 T02391033  RH  016%=      5-min Rain = 0
KRO1 232208Z 24014KT 24/M03 A2995 RMK A01 T02391032  RH  016%=      5-min Rain = 0
KRO1 232209Z 25014KT 24/M03 A2995 RMK A01 T02391034  RH  016%=      5-min Rain = 0
KRO1 232210Z 23016KT 24/M03 A2995 RMK A01 T02391032  RH  016%=      5-min Rain = 0
KRO1 232211Z 24015KT 24/M03 A2995 RMK A01 T02391033  RH  016%=      5-min Rain = 0
KRO1 232212Z 23014KT 24/M03 A2995 RMK A01 T02391032  RH  016%=      5-min Rain = 0
KRO1 232213Z 24014KT 24/M03 A2995 RMK A01 T02391032  RH  016%=      5-min Rain = 0
KRO1 232214Z 24013KT 24/M03 A2995 RMK A01 T02391032  RH  016%=      5-min Rain = 0
KRO1 232215Z 24013KT 24/M03 A2995 RMK A01 T02391032  RH  016%=      5-min Rain = 0
KRO1 232216Z 23011KT 24/M03 A2995 RMK A01 T02391030  RH  017%=      5-min Rain = 0
KRO1 232217Z 24014KT 24/M03 A2995 RMK A01 T02401027  RH  017%=      5-min Rain = 0
KRO1 232218Z 23016KT 24/M03 A2995 RMK A01 T02411033  RH  016%=      5-min Rain = 0
KRO1 232219Z 24015KT 24/M03 A2995 RMK A01 T02401030  RH  016%=      5-min Rain = 0
KRO1 232220Z 24014KT 24/M03 A2995 RMK A01 T02401032  RH  016%=      5-min Rain = 0
KRO1 232221Z 24016KT 24/M03 A2995 RMK A01 T02401031  RH  016%=      5-min Rain = 0
KRO1 232222Z 24016KT 24/M03 A2995 RMK A01 T02401032  RH  016%=      5-min Rain = 0
KRO1 232223Z 24013KT 24/M03 A2995 RMK A01 T02401029  RH  016%=      5-min Rain = 0
KRO1 232224Z 25012KT 24/M03 A2995 RMK A01 T02411030  RH  016%=      5-min Rain = 0
KRO1 232225Z 24012KT 24/M03 A2995 RMK A01 T02411030  RH  016%=      5-min Rain = 0
KRO1 232226Z 24012KT 24/M03 A2995 RMK A01 T02411029  RH  016%=      5-min Rain = 0
KRO1 232227Z 24013KT 24/M03 A2995 RMK A01 T02421030  RH  016%=      5-min Rain = 0
KRO1 232228Z 24014KT 24/M03 A2995 RMK A01 T02421028  RH  017%=      5-min Rain = 0
KRO1 232229Z 24014KT 24/M03 A2995 RMK A01 T02411030  RH  016%=      5-min Rain = 0
KRO1 232230Z 23014KT 24/M03 A2995 RMK A01 T02411027  RH  017%=      5-min Rain = 0
KRO1 232231Z 22014KT 24/M03 A2995 RMK A01 T02421028  RH  016%=      5-min Rain = 0
KRO1 232232Z 23014KT 24/M03 A2995 RMK A01 T02421029  RH  016%=      5-min Rain = 0
KRO1 232233Z 22016KT 24/M03 A2995 RMK A01 T02421029  RH  016%=      5-min Rain = 0
KRO1 232234Z 23016KT 24/M03 A2995 RMK A01 T02421030  RH  016%=      5-min Rain = 0
KRO1 232235Z 23013KT 24/M03 A2995 RMK A01 T02421032  RH  016%=      5-min Rain = 0
KRO1 232236Z 24012KT 24/M03 A2995 RMK A01 T02411032  RH  016%=      5-min Rain = 0
KRO1 232237Z 23014KT 24/M03 A2995 RMK A01 T02411030  RH  016%=      5-min Rain = 0
KRO1 232238Z 23014KT 24/M03 A2995 RMK A01 T02411028  RH  016%=      5-min Rain = 0
KRO1 232239Z 23012KT 24/M03 A2995 RMK A01 T02411029  RH  017%=      5-min Rain = 0
KRO1 232240Z 24010KT 24/M02 A2995 RMK A01 T02421022  RH  017%=      5-min Rain = 0
KRO1 232241Z 23010KT 24/M02 A2995 RMK A01 T02431023  RH  017%=      5-min Rain = 0
KRO1 232242Z 24009KT 24/M02 A2995 RMK A01 T02441022  RH  017%=      5-min Rain = 0
KRO1 232243Z 25010KT 24/M03 A2995 RMK A01 T02441026  RH  017%=      5-min Rain = 0
KRO1 232244Z 24010KT 24/M03 A2995 RMK A01 T02441026  RH  017%=      5-min Rain = 0
KRO1 232245Z 22011KT 24/M03 A2995 RMK A01 T02431026  RH  017%=      5-min Rain = 0
KRO1 232246Z 22011KT 24/M03 A2995 RMK A01 T02431028  RH  016%=      5-min Rain = 0
KRO1 232247Z 22012KT 24/M03 A2995 RMK A01 T02431029  RH  016%=      5-min Rain = 0
KRO1 232248Z 22011KT 24/M03 A2994 RMK A01 T02421029  RH  016%=      5-min Rain = 0
KRO1 232249Z 21014KT 24/M03 A2994 RMK A01 T02421027  RH  017%=      5-min Rain = 0
KRO1 232250Z 22013KT 24/M03 A2994 RMK A01 T02421027  RH  017%=      5-min Rain = 0
KRO1 232251Z 23013KT 24/M03 A2994 RMK A01 T02421026  RH  017%=      5-min Rain = 0
KRO1 232252Z 24014KT 24/M03 A2994 RMK A01 T02421031  RH  016%=      5-min Rain = 0
KRO1 232253Z 24013KT 24/M03 A2994 RMK A01 T02411031  RH  016%=      5-min Rain = 0
KRO1 232254Z 24013KT 24/M03 A2994 RMK A01 T02411032  RH  016%=      5-min Rain = 0
KRO1 232255Z 24012KT 24/M03 A2994 RMK A01 T02411029  RH  016%=      5-min Rain = 0
KRO1 232256Z 22012KT 24/M03 A2994 RMK A01 T02421026  RH  017%=      5-min Rain = 0
KRO1 232257Z 22012KT 24/M03 A2994 RMK A01 T02441025  RH  017%=      5-min Rain = 0
KRO1 232258Z 23012KT 25/M03 A2994 RMK A01 T02461026  RH  016%=      5-min Rain = 0
KRO1 232259Z 22012KT 25/M02 A2995 RMK A01 T02491023  RH  016%=      5-min Rain = 0
KRO1 232300Z 23011KT 25/M03 A2994 RMK A01 T02501027  RH  016%=      5-min Rain = 0
KRO1 232301Z 22011KT 25/M02 A2995 RMK A01 T02511024  RH  016%=      5-min Rain = 0
KRO1 232302Z 21012KT 25/M03 A2994 RMK A01 T02521026  RH  016%=      5-min Rain = 0
KRO1 232303Z 21011KT 25/M03 A2994 RMK A01 T02511026  RH  016%=      5-min Rain = 0
KRO1 232304Z 22011KT 25/M03 A2994 RMK A01 T02501029  RH  016%=      5-min Rain = 0
KRO1 232305Z 22011KT 25/M03 A2994 RMK A01 T02481030  RH  016%=      5-min Rain = 0
KRO1 232306Z 21011KT 25/M03 A2994 RMK A01 T02471028  RH  016%=      5-min Rain = 0
KRO1 232307Z 20009KT 25/M03 A2994 RMK A01 T02471027  RH  016%=      5-min Rain = 0
KRO1 232308Z 21011KT 25/M02 A2994 RMK A01 T02471023  RH  017%=      5-min Rain = 0
KRO1 232309Z 22010KT 25/M03 A2994 RMK A01 T02481031  RH  016%=      5-min Rain = 0
KRO1 232310Z 21009KT 25/M03 A2994 RMK A01 T02481025  RH  016%=      5-min Rain = 0
KRO1 232311Z 19009KT 25/M02 A2994 RMK A01 T02491024  RH  016%=      5-min Rain = 0
KRO1 232312Z 21006KT 25/M03 A2994 RMK A01 T02501028  RH  016%=      5-min Rain = 0
KRO1 232313Z 19006KT 25/M03 A2994 RMK A01 T02491025  RH  016%=      5-min Rain = 0
KRO1 232314Z 20006KT 25/M02 A2994 RMK A01 T02491023  RH  016%=      5-min Rain = 0
KRO1 232315Z 22009KT 25/M02 A2994 RMK A01 T02501022  RH  016%=      5-min Rain = 0
KRO1 232316Z 22011KT 25/M02 A2994 RMK A01 T02521022  RH  016%=      5-min Rain = 0
KRO1 232317Z 23013KT 25/M03 A2994 RMK A01 T02531025  RH  016%=      5-min Rain = 0
KRO1 232318Z 23012KT 25/M03 A2994 RMK A01 T02531028  RH  016%=      5-min Rain = 0
KRO1 232319Z 22015KT 25/M03 A2994 RMK A01 T02521026  RH  016%=      5-min Rain = 0
KRO1 232320Z 23014KT 25/M03 A2994 RMK A01 T02521030  RH  015%=      5-min Rain = 0
KRO1 232321Z 22014KT 25/M03 A2994 RMK A01 T02511029  RH  016%=      5-min Rain = 0
KRO1 232322Z 21014KT 25/M03 A2994 RMK A01 T02501027  RH  016%=      5-min Rain = 0
KRO1 232323Z 21013KT 25/M03 A2994 RMK A01 T02501031  RH  015%=      5-min Rain = 0
KRO1 232324Z 21014KT 25/M03 A2994 RMK A01 T02491029  RH  016%=      5-min Rain = 0
KRO1 232325Z 21014KT 25/M03 A2994 RMK A01 T02491031  RH  015%=      5-min Rain = 0
KRO1 232326Z 22014KT 25/M03 A2995 RMK A01 T02481032  RH  015%=      5-min Rain = 0
KRO1 232327Z 22012KT 25/M04 A2995 RMK A01 T02471038  RH  015%=      5-min Rain = 0
KRO1 232328Z 22012KT 25/M03 A2994 RMK A01 T02471034  RH  015%=      5-min Rain = 0
KRO1 232329Z 22013KT 25/M03 A2995 RMK A01 T02471031  RH  016%=      5-min Rain = 0
KRO1 232330Z 21012KT 25/M04 A2995 RMK A01 T02471035  RH  015%=      5-min Rain = 0
KRO1 232331Z 22011KT 25/M03 A2995 RMK A01 T02471034  RH  015%=      5-min Rain = 0
KRO1 232332Z 22010KT 25/M03 A2995 RMK A01 T02471034  RH  015%=      5-min Rain = 0
KRO1 232333Z 22012KT 25/M03 A2995 RMK A01 T02471030  RH  016%=      5-min Rain = 0
KRO1 232334Z 22012KT 25/M03 A2995 RMK A01 T02481028  RH  016%=      5-min Rain = 0
KRO1 232335Z 21012KT 25/M03 A2995 RMK A01 T02481029  RH  016%=      5-min Rain = 0
KRO1 232336Z 20015KT 25/M03 A2994 RMK A01 T02461031  RH  016%=      5-min Rain = 0
KRO1 232337Z 22013KT 25/M03 A2994 RMK A01 T02451032  RH  016%=      5-min Rain = 0
KRO1 232338Z 22013KT 24/M03 A2994 RMK A01 T02441034  RH  015%=      5-min Rain = 0
KRO1 232339Z 21011KT 24/M04 A2994 RMK A01 T02441035  RH  016%=      5-min Rain = 0
KRO1 232340Z 22011KT 24/M04 A2995 RMK A01 T02431035  RH  016%=      5-min Rain = 0
KRO1 232341Z 23010KT 24/M04 A2995 RMK A01 T02421036  RH  016%=      5-min Rain = 0
KRO1 232342Z 23008KT 24/M03 A2994 RMK A01 T02421034  RH  016%=      5-min Rain = 0
KRO1 232343Z 23008KT 24/M04 A2994 RMK A01 T02411037  RH  016%=      5-min Rain = 0
KRO1 232344Z 23010KT 24/M03 A2994 RMK A01 T02411032  RH  016%=      5-min Rain = 0
KRO1 232345Z 23009KT 24/M03 A2994 RMK A01 T02401032  RH  016%=      5-min Rain = 0
KRO1 232346Z 23010KT 24/M03 A2994 RMK A01 T02401031  RH  016%=      5-min Rain = 0
KRO1 232347Z 23013KT 24/M03 A2994 RMK A01 T02401030  RH  016%=      5-min Rain = 0
KRO1 232348Z 22014KT 24/M03 A2994 RMK A01 T02401029  RH  017%=      5-min Rain = 0
KRO1 232349Z 20013KT 24/M03 A2994 RMK A01 T02401028  RH  017%=      5-min Rain = 0
KRO1 232350Z 21013KT 24/M03 A2994 RMK A01 T02401025  RH  017%=      5-min Rain = 0
KRO1 232351Z 21014KT 24/M03 A2994 RMK A01 T02391026  RH  017%=      5-min Rain = 0
KRO1 232352Z 21015KT 24/M03 A2994 RMK A01 T02391028  RH  017%=      5-min Rain = 0
KRO1 232353Z 21016KT 24/M03 A2994 RMK A01 T02391028  RH  017%=      5-min Rain = 0
KRO1 232354Z 21015KT 24/M03 A2994 RMK A01 T02391028  RH  017%=      5-min Rain = 0
KRO1 232355Z 21015KT 24/M03 A2994 RMK A01 T02381027  RH  017%=      5-min Rain = 0
KRO1 232356Z 21015KT 24/M03 A2994 RMK A01 T02381027  RH  017%=      5-min Rain = 0
KRO1 232357Z 21013KT 24/M03 A2994 RMK A01 T02371026  RH  017%=      5-min Rain = 0
KRO1 232358Z 22013KT 24/M02 A2994 RMK A01 T02371024  RH  018%=      5-min Rain = 0
KRO1 232359Z 21011KT 24/M02 A2994 RMK A01 T02371024  RH  018%=      5-min Rain = 0
KRO1 240000Z 21013KT 24/M03 A2994 RMK A01 T02361025  RH  017%=      5-min Rain = 0
KRO1 240001Z 21014KT 24/M03 A2994 RMK A01 T02361029  RH  017%=      5-min Rain = 0
KRO1 240002Z 21012KT 24/M03 A2994 RMK A01 T02351029  RH  017%=      5-min Rain = 0
KRO1 240003Z 21013KT 24/M03 A2994 RMK A01 T02351028  RH  017%=      5-min Rain = 0
KRO1 240004Z 22012KT 23/M03 A2994 RMK A01 T02341030  RH  017%=      5-min Rain = 0
KRO1 240005Z 22011KT 23/M03 A2994 RMK A01 T02341029  RH  017%=      5-min Rain = 0
KRO1 240006Z 22011KT 23/M03 A2994 RMK A01 T02341028  RH  017%=      5-min Rain = 0
KRO1 240007Z 22010KT 23/M03 A2994 RMK A01 T02341028  RH  017%=      5-min Rain = 0
KRO1 240008Z 22011KT 23/M03 A2994 RMK A01 T02341026  RH  017%=      5-min Rain = 0
KRO1 240009Z 22012KT 23/M03 A2994 RMK A01 T02341032  RH  017%=      5-min Rain = 0
KRO1 240010Z 22011KT 23/M03 A2994 RMK A01 T02341033  RH  017%=      5-min Rain = 0
KRO1 240011Z 22013KT 23/M03 A2994 RMK A01 T02341033  RH  017%=      5-min Rain = 0
KRO1 240012Z 22014KT 23/M04 A2994 RMK A01 T02341035  RH  016%=      5-min Rain = 0
KRO1 240013Z 22012KT 23/M04 A2994 RMK A01 T02341035  RH  016%=      5-min Rain = 0
KRO1 240014Z 22013KT 23/M03 A2994 RMK A01 T02341034  RH  017%=      5-min Rain = 0
KRO1 240015Z 22013KT 23/M03 A2994 RMK A01 T02341034  RH  017%=      5-min Rain = 0
KRO1 240016Z 22012KT 23/M03 A2994 RMK A01 T02331032  RH  017%=      5-min Rain = 0
KRO1 240017Z 21012KT 23/M03 A2994 RMK A01 T02321032  RH  017%=      5-min Rain = 0
KRO1 240018Z 21012KT 23/M03 A2994 RMK A01 T02321031  RH  017%=      5-min Rain = 0
KRO1 240019Z 21012KT 23/M03 A2994 RMK A01 T02321031  RH  017%=      5-min Rain = 0
KRO1 240020Z 21011KT 23/M03 A2994 RMK A01 T02311031  RH  017%=      5-min Rain = 0
KRO1 240021Z 21011KT 23/M03 A2994 RMK A01 T02311029  RH  018%=      5-min Rain = 0
KRO1 240022Z 21011KT 23/M03 A2994 RMK A01 T02301029  RH  018%=      5-min Rain = 0
KRO1 240023Z 21011KT 23/M03 A2994 RMK A01 T02301028  RH  018%=      5-min Rain = 0
KRO1 240024Z 21011KT 23/M03 A2994 RMK A01 T02291026  RH  018%=      5-min Rain = 0
KRO1 240025Z 21011KT 23/M03 A2994 RMK A01 T02281028  RH  018%=      5-min Rain = 0
KRO1 240026Z 21010KT 23/M03 A2994 RMK A01 T02281027  RH  018%=      5-min Rain = 0
KRO1 240027Z 21009KT 23/M03 A2994 RMK A01 T02271027  RH  018%=      5-min Rain = 0
KRO1 240028Z 21009KT 23/M02 A2994 RMK A01 T02271024  RH  019%=      5-min Rain = 0
KRO1 240029Z 21010KT 23/M02 A2994 RMK A01 T02261024  RH  019%=      5-min Rain = 0
KRO1 240030Z 21010KT 23/M03 A2994 RMK A01 T02251027  RH  018%=      5-min Rain = 0
KRO1 240031Z 21009KT 23/M03 A2994 RMK A01 T02251026  RH  018%=      5-min Rain = 0
KRO1 240032Z 21009KT 23/M03 A2994 RMK A01 T02251025  RH  019%=      5-min Rain = 0
KRO1 240033Z 21009KT 22/M02 A2994 RMK A01 T02231023  RH  019%=      5-min Rain = 0
KRO1 240034Z 21009KT 22/M02 A2994 RMK A01 T02221022  RH  019%=      5-min Rain = 0
KRO1 240035Z 21009KT 22/M02 A2994 RMK A01 T02211022  RH  020%=      5-min Rain = 0
KRO1 240036Z 21008KT 22/M02 A2994 RMK A01 T02201021  RH  020%=      5-min Rain = 0
KRO1 240037Z 20008KT 22/M02 A2994 RMK A01 T02181019  RH  020%=      5-min Rain = 0
KRO1 240038Z 20008KT 22/M02 A2994 RMK A01 T02171019  RH  020%=      5-min Rain = 0
KRO1 240039Z 20008KT 22/M02 A2994 RMK A01 T02161018  RH  021%=      5-min Rain = 0
KRO1 240040Z 20008KT 22/M02 A2994 RMK A01 T02151017  RH  021%=      5-min Rain = 0
KRO1 240041Z 21008KT 21/M02 A2994 RMK A01 T02141017  RH  021%=      5-min Rain = 0
KRO1 240042Z 21008KT 21/M02 A2994 RMK A01 T02141017  RH  021%=      5-min Rain = 0
KRO1 240043Z 21008KT 21/M02 A2994 RMK A01 T02131017  RH  021%=      5-min Rain = 0
KRO1 240044Z 21008KT 21/M02 A2994 RMK A01 T02121016  RH  022%=      5-min Rain = 0
KRO1 240045Z 21008KT 21/M02 A2994 RMK A01 T02121016  RH  022%=      5-min Rain = 0
KRO1 240046Z 20008KT 21/M02 A2994 RMK A01 T02111017  RH  022%=      5-min Rain = 0
KRO1 240047Z 20008KT 21/M02 A2994 RMK A01 T02111016  RH  022%=      5-min Rain = 0
KRO1 240048Z 20007KT 21/M02 A2994 RMK A01 T02101016  RH  022%=      5-min Rain = 0
KRO1 240049Z 20007KT 21/M02 A2994 RMK A01 T02101015  RH  022%=      5-min Rain = 0
KRO1 240050Z 20007KT 21/M01 A2994 RMK A01 T02081014  RH  023%=      5-min Rain = 0
KRO1 240051Z 19007KT 21/M01 A2994 RMK A01 T02071013  RH  023%=      5-min Rain = 0
KRO1 240052Z 19008KT 21/M01 A2994 RMK A01 T02061012  RH  023%=      5-min Rain = 0
KRO1 240053Z 19008KT 21/M01 A2994 RMK A01 T02051011  RH  023%=      5-min Rain = 0
KRO1 240054Z 19008KT 20/M01 A2994 RMK A01 T02041011  RH  024%=      5-min Rain = 0
KRO1 240055Z 19009KT 20/M01 A2994 RMK A01 T02031009  RH  024%=      5-min Rain = 0
KRO1 240056Z 19009KT 20/M01 A2994 RMK A01 T02021009  RH  024%=      5-min Rain = 0
KRO1 240057Z 19009KT 20/M01 A2994 RMK A01 T02021009  RH  024%=      5-min Rain = 0
KRO1 240058Z 19009KT 20/M01 A2994 RMK A01 T02021010  RH  024%=      5-min Rain = 0
KRO1 240059Z 19009KT 20/M01 A2994 RMK A01 T02011009  RH  024%=      5-min Rain = 0
KRO1 240100Z 19008KT 20/M01 A2994 RMK A01 T02011009  RH  024%=      5-min Rain = 0
KRO1 240101Z 19009KT 20/M01 A2994 RMK A01 T02011009  RH  024%=      5-min Rain = 0
KRO1 240102Z 19009KT 20/M01 A2994 RMK A01 T02011008  RH  024%=      5-min Rain = 0
KRO1 240103Z 19009KT 20/M01 A2994 RMK A01 T02011008  RH  025%=      5-min Rain = 0
KRO1 240104Z 19010KT 20/M01 A2994 RMK A01 T02001007  RH  025%=      5-min Rain = 0
KRO1 240105Z 19010KT 20/M01 A2994 RMK A01 T02001007  RH  025%=      5-min Rain = 0
KRO1 240106Z 19010KT 20/M01 A2994 RMK A01 T01991007  RH  025%=      5-min Rain = 0
KRO1 240107Z 19010KT 20/M01 A2994 RMK A01 T01981006  RH  025%=      5-min Rain = 0
KRO1 240108Z 19010KT 20/M01 A2994 RMK A01 T01981006  RH  025%=      5-min Rain = 0
KRO1 240109Z 19010KT 20/M01 A2994 RMK A01 T01971006  RH  026%=      5-min Rain = 0
KRO1 240110Z 19010KT 20/M01 A2994 RMK A01 T01961005  RH  026%=      5-min Rain = 0
KRO1 240111Z 19010KT 20/M01 A2994 RMK A01 T01961005  RH  026%=      5-min Rain = 0
KRO1 240112Z 19010KT 20/M01 A2994 RMK A01 T01951005  RH  026%=      5-min Rain = 0
KRO1 240113Z 19009KT 20/M01 A2994 RMK A01 T01951006  RH  026%=      5-min Rain = 0
KRO1 240114Z 19010KT 20/M01 A2994 RMK A01 T01951006  RH  026%=      5-min Rain = 0
KRO1 240115Z 19010KT 20/M01 A2994 RMK A01 T01951006  RH  026%=      5-min Rain = 0
KRO1 240116Z 19010KT 19/M01 A2994 RMK A01 T01941006  RH  026%=      5-min Rain = 0
KRO1 240117Z 19010KT 19/M01 A2994 RMK A01 T01931005  RH  026%=      5-min Rain = 0
KRO1 240118Z 19010KT 19/M01 A2994 RMK A01 T01931005  RH  026%=      5-min Rain = 0
KRO1 240119Z 19010KT 19/M01 A2994 RMK A01 T01921005  RH  027%=      5-min Rain = 0
KRO1 240120Z 19010KT 19/M01 A2994 RMK A01 T01911005  RH  027%=      5-min Rain = 0
KRO1 240121Z 19010KT 19/M00 A2994 RMK A01 T01911004  RH  027%=      5-min Rain = 0
KRO1 240122Z 19010KT 19/M01 A2994 RMK A01 T01901005  RH  027%=      5-min Rain = 0
KRO1 240123Z 19009KT 19/M00 A2994 RMK A01 T01901004  RH  027%=      5-min Rain = 0
KRO1 240124Z 19009KT 19/M00 A2994 RMK A01 T01881004  RH  027%=      5-min Rain = 0
KRO1 240125Z 19009KT 19/M00 A2995 RMK A01 T01881003  RH  028%=      5-min Rain = 0
KRO1 240126Z 19009KT 19/M00 A2995 RMK A01 T01871003  RH  028%=      5-min Rain = 0
KRO1 240127Z 19009KT 19/M00 A2995 RMK A01 T01861003  RH  028%=      5-min Rain = 0
KRO1 240128Z 19009KT 19/M00 A2995 RMK A01 T01851002  RH  028%=      5-min Rain = 0
KRO1 240129Z 19009KT 18/M00 A2995 RMK A01 T01841002  RH  029%=      5-min Rain = 0
KRO1 240130Z 19009KT 18/M00 A2995 RMK A01 T01831001  RH  029%=      5-min Rain = 0
KRO1 240131Z 19009KT 18/M00 A2995 RMK A01 T01821001  RH  029%=      5-min Rain = 0
KRO1 240132Z 19009KT 18/M00 A2995 RMK A01 T01811001  RH  029%=      5-min Rain = 0
KRO1 240133Z 19010KT 18/00 A2995 RMK A01 T018000-0  RH  030%=      5-min Rain = 0
KRO1 240134Z 19010KT 18/00 A2995 RMK A01 T018000-0  RH  030%=      5-min Rain = 0
KRO1 240135Z 19010KT 18/00 A2995 RMK A01 T01790000  RH  030%=      5-min Rain = 0
KRO1 240136Z 19010KT 18/00 A2995 RMK A01 T01790001  RH  030%=      5-min Rain = 0
KRO1 240137Z 19010KT 18/00 A2995 RMK A01 T01790001  RH  030%=      5-min Rain = 0
KRO1 240138Z 19010KT 18/00 A2995 RMK A01 T01790000  RH  030%=      5-min Rain = 0
KRO1 240139Z 19010KT 18/00 A2995 RMK A01 T017900-0  RH  030%=      5-min Rain = 0
KRO1 240140Z 19011KT 18/00 A2995 RMK A01 T018000-0  RH  030%=      5-min Rain = 0
KRO1 240141Z 19011KT 18/00 A2995 RMK A01 T018100-0  RH  029%=      5-min Rain = 0
KRO1 240142Z 19011KT 18/M00 A2995 RMK A01 T01811001  RH  029%=      5-min Rain = 0
KRO1 240143Z 19011KT 18/M00 A2995 RMK A01 T01821001  RH  029%=      5-min Rain = 0
KRO1 240144Z 19012KT 18/M00 A2995 RMK A01 T01821001  RH  029%=      5-min Rain = 0
KRO1 240145Z 20011KT 18/M00 A2995 RMK A01 T01831002  RH  029%=      5-min Rain = 0
KRO1 240146Z 20011KT 18/M00 A2995 RMK A01 T01841002  RH  029%=      5-min Rain = 0
KRO1 240147Z 20011KT 18/M00 A2995 RMK A01 T01841002  RH  029%=      5-min Rain = 0
KRO1 240148Z 20011KT 18/M00 A2995 RMK A01 T01841001  RH  029%=      5-min Rain = 0
KRO1 240149Z 20011KT 18/M00 A2995 RMK A01 T01841001  RH  029%=      5-min Rain = 0
KRO1 240150Z 20011KT 18/M00 A2995 RMK A01 T01841002  RH  029%=      5-min Rain = 0
KRO1 240151Z 20011KT 18/M00 A2995 RMK A01 T01841002  RH  029%=      5-min Rain = 0
KRO1 240152Z 19011KT 18/M00 A2995 RMK A01 T01841001  RH  029%=      5-min Rain = 0
KRO1 240153Z 20011KT 18/M00 A2995 RMK A01 T01841001  RH  029%=      5-min Rain = 0
KRO1 240154Z 19011KT 18/M00 A2995 RMK A01 T01841001  RH  029%=      5-min Rain = 0
KRO1 240155Z 20011KT 18/00 A2995 RMK A01 T018400-0  RH  029%=      5-min Rain = 0
KRO1 240156Z 20010KT 18/00 A2995 RMK A01 T018400-0  RH  029%=      5-min Rain = 0
KRO1 240157Z 20010KT 18/M00 A2995 RMK A01 T01831001  RH  029%=      5-min Rain = 0
KRO1 240158Z 19010KT 18/00 A2995 RMK A01 T018300-0  RH  029%=      5-min Rain = 0
KRO1 240159Z 19010KT 18/00 A2995 RMK A01 T01820000  RH  029%=      5-min Rain = 0
KRO1 240200Z 19010KT 18/00 A2995 RMK A01 T01810001  RH  030%=      5-min Rain = 0
KRO1 240201Z 19010KT 18/00 A2995 RMK A01 T01810001  RH  030%=      5-min Rain = 0
KRO1 240202Z 19011KT 18/00 A2995 RMK A01 T01800001  RH  030%=      5-min Rain = 0
KRO1 240203Z 19011KT 18/00 A2995 RMK A01 T01800002  RH  030%=      5-min Rain = 0
KRO1 240204Z 19010KT 18/00 A2995 RMK A01 T01790002  RH  030%=      5-min Rain = 0
KRO1 240205Z 19010KT 18/00 A2996 RMK A01 T01790003  RH  030%=      5-min Rain = 0
KRO1 240206Z 19010KT 18/00 A2996 RMK A01 T01780003  RH  031%=      5-min Rain = 0
KRO1 240207Z 19010KT 18/00 A2996 RMK A01 T01780003  RH  031%=      5-min Rain = 0
KRO1 240208Z 19010KT 18/00 A2996 RMK A01 T01780003  RH  031%=      5-min Rain = 0
KRO1 240209Z 19010KT 18/00 A2996 RMK A01 T01770004  RH  031%=      5-min Rain = 0
KRO1 240210Z 19010KT 18/00 A2996 RMK A01 T01760004  RH  031%=      5-min Rain = 0
KRO1 240211Z 19009KT 18/00 A2996 RMK A01 T01750004  RH  031%=      5-min Rain = 0
KRO1 240212Z 19009KT 18/01 A2996 RMK A01 T01750005  RH  032%=      5-min Rain = 0
KRO1 240213Z 19010KT 17/00 A2996 RMK A01 T01740004  RH  032%=      5-min Rain = 0
KRO1 240214Z 19010KT 17/00 A2996 RMK A01 T01730004  RH  032%=      5-min Rain = 0
KRO1 240215Z 19009KT 17/01 A2996 RMK A01 T01730005  RH  032%=      5-min Rain = 0
KRO1 240216Z 20010KT 17/01 A2996 RMK A01 T01720005  RH  032%=      5-min Rain = 0
KRO1 240217Z 20010KT 17/01 A2996 RMK A01 T01720005  RH  032%=      5-min Rain = 0
KRO1 240218Z 19009KT 17/01 A2996 RMK A01 T01710006  RH  033%=      5-min Rain = 0
KRO1 240219Z 19010KT 17/01 A2996 RMK A01 T01700005  RH  033%=      5-min Rain = 0
KRO1 240220Z 19010KT 17/01 A2996 RMK A01 T01700005  RH  033%=      5-min Rain = 0
KRO1 240221Z 19010KT 17/01 A2996 RMK A01 T01700006  RH  033%=      5-min Rain = 0
KRO1 240222Z 19010KT 17/01 A2996 RMK A01 T01700006  RH  033%=      5-min Rain = 0
KRO1 240223Z 19010KT 17/01 A2996 RMK A01 T01700006  RH  033%=      5-min Rain = 0
KRO1 240224Z 20010KT 17/01 A2996 RMK A01 T01690006  RH  033%=      5-min Rain = 0
KRO1 240225Z 20010KT 17/01 A2996 RMK A01 T01690006  RH  033%=      5-min Rain = 0
KRO1 240226Z 20010KT 17/01 A2996 RMK A01 T01690007  RH  033%=      5-min Rain = 0
KRO1 240227Z 20010KT 17/01 A2997 RMK A01 T01680006  RH  033%=      5-min Rain = 0
KRO1 240228Z 20010KT 17/01 A2997 RMK A01 T01680006  RH  033%=      5-min Rain = 0
KRO1 240229Z 20010KT 17/01 A2997 RMK A01 T01680006  RH  033%=      5-min Rain = 0
KRO1 240230Z 20010KT 17/01 A2997 RMK A01 T01680006  RH  033%=      5-min Rain = 0
KRO1 240231Z 20010KT 17/01 A2997 RMK A01 T01680007  RH  034%=      5-min Rain = 0
KRO1 240232Z 20010KT 17/01 A2997 RMK A01 T01670007  RH  034%=      5-min Rain = 0
KRO1 240233Z 20010KT 17/01 A2997 RMK A01 T01670007  RH  034%=      5-min Rain = 0
KRO1 240234Z 20010KT 17/01 A2997 RMK A01 T01660008  RH  034%=      5-min Rain = 0
KRO1 240235Z 20010KT 17/01 A2997 RMK A01 T01660007  RH  034%=      5-min Rain = 0
KRO1 240236Z 20010KT 17/01 A2997 RMK A01 T01650008  RH  034%=      5-min Rain = 0
KRO1 240237Z 20010KT 17/01 A2997 RMK A01 T01650007  RH  034%=      5-min Rain = 0
KRO1 240238Z 20010KT 17/01 A2997 RMK A01 T01650008  RH  034%=      5-min Rain = 0
KRO1 240239Z 20010KT 17/01 A2997 RMK A01 T01650008  RH  034%=      5-min Rain = 0
KRO1 240240Z 20010KT 17/01 A2997 RMK A01 T01650008  RH  035%=      5-min Rain = 0
KRO1 240241Z 20010KT 17/01 A2997 RMK A01 T01660009  RH  035%=      5-min Rain = 0
KRO1 240242Z 19009KT 17/01 A2997 RMK A01 T01650008  RH  035%=      5-min Rain = 0
KRO1 240243Z 19009KT 17/01 A2997 RMK A01 T01650008  RH  035%=      5-min Rain = 0
KRO1 240244Z 19009KT 17/01 A2997 RMK A01 T01650008  RH  035%=      5-min Rain = 0
KRO1 240245Z 19009KT 17/01 A2997 RMK A01 T01650008  RH  035%=      5-min Rain = 0
KRO1 240246Z 19009KT 17/01 A2997 RMK A01 T01650008  RH  035%=      5-min Rain = 0
KRO1 240247Z 19009KT 17/01 A2998 RMK A01 T01650008  RH  035%=      5-min Rain = 0
KRO1 240248Z 19009KT 17/01 A2998 RMK A01 T01650009  RH  035%=      5-min Rain = 0
KRO1 240249Z 19009KT 16/01 A2998 RMK A01 T01640009  RH  035%=      5-min Rain = 0
KRO1 240250Z 19009KT 16/01 A2998 RMK A01 T01640009  RH  035%=      5-min Rain = 0
KRO1 240251Z 20009KT 16/01 A2998 RMK A01 T01630009  RH  035%=      5-min Rain = 0
KRO1 240252Z 20009KT 16/01 A2998 RMK A01 T01630009  RH  035%=      5-min Rain = 0
KRO1 240253Z 20009KT 16/01 A2998 RMK A01 T01630010  RH  035%=      5-min Rain = 0
KRO1 240254Z 20009KT 16/01 A2998 RMK A01 T01630010  RH  036%=      5-min Rain = 0
KRO1 240255Z 20009KT 16/01 A2998 RMK A01 T01630011  RH  036%=      5-min Rain = 0
KRO1 240256Z 20009KT 16/01 A2998 RMK A01 T01620011  RH  036%=      5-min Rain = 0
KRO1 240257Z 20009KT 16/01 A2998 RMK A01 T01620011  RH  036%=      5-min Rain = 0
KRO1 240258Z 20009KT 16/01 A2998 RMK A01 T01610011  RH  036%=      5-min Rain = 0
KRO1 240259Z 20009KT 16/01 A2998 RMK A01 T01610011  RH  036%=      5-min Rain = 0
KRO1 240300Z 20009KT 16/01 A2998 RMK A01 T01600010  RH  036%=      5-min Rain = 0
KRO1 240301Z 20008KT 16/01 A2998 RMK A01 T01600010  RH  036%=      5-min Rain = 0
KRO1 240302Z 20008KT 16/01 A2999 RMK A01 T01600010  RH  036%=      5-min Rain = 0
KRO1 240303Z 20008KT 16/01 A2999 RMK A01 T01590010  RH  036%=      5-min Rain = 0
KRO1 240304Z 20008KT 16/01 A2999 RMK A01 T01580010  RH  037%=      5-min Rain = 0
KRO1 240305Z 20008KT 16/01 A2999 RMK A01 T01570009  RH  037%=      5-min Rain = 0
KRO1 240306Z 20007KT 16/01 A2999 RMK A01 T01550008  RH  037%=      5-min Rain = 0
KRO1 240307Z 20007KT 15/01 A2999 RMK A01 T01540006  RH  037%=      5-min Rain = 0
KRO1 240308Z 20007KT 15/01 A2999 RMK A01 T01530006  RH  037%=      5-min Rain = 0
KRO1 240309Z 21008KT 15/01 A2999 RMK A01 T01520006  RH  037%=      5-min Rain = 0
KRO1 240310Z 21008KT 15/01 A2999 RMK A01 T01520007  RH  037%=      5-min Rain = 0
KRO1 240311Z 21008KT 15/01 A2999 RMK A01 T01520007  RH  037%=      5-min Rain = 0
KRO1 240312Z 21008KT 15/01 A2999 RMK A01 T01520007  RH  037%=      5-min Rain = 0
KRO1 240313Z 21008KT 15/01 A2999 RMK A01 T01520007  RH  037%=      5-min Rain = 0
KRO1 240314Z 21008KT 15/01 A2999 RMK A01 T01530007  RH  037%=      5-min Rain = 0
KRO1 240315Z 21008KT 15/01 A2999 RMK A01 T01530008  RH  037%=      5-min Rain = 0
KRO1 240316Z 22008KT 15/01 A2999 RMK A01 T01520007  RH  037%=      5-min Rain = 0
KRO1 240317Z 22008KT 15/01 A2999 RMK A01 T01520005  RH  037%=      5-min Rain = 0
KRO1 240318Z 22007KT 15/01 A2999 RMK A01 T01520005  RH  037%=      5-min Rain = 0
KRO1 240319Z 22007KT 15/01 A2999 RMK A01 T01520006  RH  037%=      5-min Rain = 0
KRO1 240320Z 22007KT 15/01 A2999 RMK A01 T01520007  RH  037%=      5-min Rain = 0
KRO1 240321Z 22007KT 15/01 A2999 RMK A01 T01530007  RH  037%=      5-min Rain = 0
KRO1 240322Z 22007KT 15/01 A2999 RMK A01 T01530007  RH  037%=      5-min Rain = 0
KRO1 240323Z 22008KT 16/01 A2999 RMK A01 T01550007  RH  037%=      5-min Rain = 0
KRO1 240324Z 21008KT 16/01 A2999 RMK A01 T01560007  RH  036%=      5-min Rain = 0
KRO1 240325Z 21008KT 16/01 A2999 RMK A01 T01560007  RH  036%=      5-min Rain = 0
KRO1 240326Z 21008KT 16/01 A2999 RMK A01 T01560007  RH  036%=      5-min Rain = 0
KRO1 240327Z 20008KT 16/01 A2999 RMK A01 T01560007  RH  036%=      5-min Rain = 0
KRO1 240328Z 20010KT 15/01 A2999 RMK A01 T01540007  RH  037%=      5-min Rain = 0
KRO1 240329Z 20011KT 15/01 A2999 RMK A01 T01520008  RH  038%=      5-min Rain = 0
KRO1 240330Z 20011KT 15/01 A2999 RMK A01 T01500008  RH  038%=      5-min Rain = 0
KRO1 240331Z 20010KT 15/01 A2999 RMK A01 T01500009  RH  038%=      5-min Rain = 0
KRO1 240332Z 20010KT 15/01 A2999 RMK A01 T01510009  RH  038%=      5-min Rain = 0
KRO1 240333Z 20010KT 15/01 A2999 RMK A01 T01520009  RH  038%=      5-min Rain = 0
KRO1 240334Z 20010KT 15/01 A2999 RMK A01 T01520009  RH  038%=      5-min Rain = 0
KRO1 240335Z 20011KT 15/01 A2999 RMK A01 T01530009  RH  038%=      5-min Rain = 0
KRO1 240336Z 20011KT 15/01 A2999 RMK A01 T01520009  RH  038%=      5-min Rain = 0
KRO1 240337Z 20011KT 15/01 A2999 RMK A01 T01520009  RH  038%=      5-min Rain = 0
KRO1 240338Z 20012KT 15/01 A2999 RMK A01 T01520009  RH  038%=      5-min Rain = 0
KRO1 240339Z 20011KT 15/01 A2999 RMK A01 T01520008  RH  037%=      5-min Rain = 0
KRO1 240340Z 20011KT 15/01 A2999 RMK A01 T01540008  RH  037%=      5-min Rain = 0
KRO1 240341Z 20011KT 16/01 A2999 RMK A01 T01550009  RH  037%=      5-min Rain = 0
KRO1 240342Z 20010KT 15/01 A2999 RMK A01 T01540009  RH  037%=      5-min Rain = 0
KRO1 240343Z 20010KT 15/01 A2999 RMK A01 T01540009  RH  037%=      5-min Rain = 0
KRO1 240344Z 20010KT 15/01 A2999 RMK A01 T01530009  RH  037%=      5-min Rain = 0
KRO1 240345Z 20011KT 15/01 A2999 RMK A01 T01520009  RH  038%=      5-min Rain = 0
KRO1 240346Z 20011KT 15/01 A2999 RMK A01 T01520009  RH  038%=      5-min Rain = 0
KRO1 240347Z 20011KT 15/01 A30 RMK A01 T01510010  RH  038%=      5-min Rain = 0
KRO1 240348Z 20011KT 15/01 A30 RMK A01 T01490010  RH  039%=      5-min Rain = 0
KRO1 240349Z 20011KT 15/01 A30 RMK A01 T01490009  RH  039%=      5-min Rain = 0
KRO1 240350Z 20011KT 15/01 A30 RMK A01 T01490009  RH  038%=      5-min Rain = 0
KRO1 240351Z 20011KT 15/01 A30 RMK A01 T01520009  RH  038%=      5-min Rain = 0
KRO1 240352Z 20011KT 15/01 A30 RMK A01 T01530009  RH  038%=      5-min Rain = 0
KRO1 240353Z 20011KT 15/01 A30 RMK A01 T01520010  RH  038%=      5-min Rain = 0
KRO1 240354Z 20010KT 15/01 A30 RMK A01 T01520010  RH  038%=      5-min Rain = 0
KRO1 240355Z 20010KT 15/01 A30 RMK A01 T01510009  RH  038%=      5-min Rain = 0
KRO1 240356Z 20009KT 15/01 A30 RMK A01 T01520009  RH  038%=      5-min Rain = 0
KRO1 240357Z 20009KT 15/01 A30 RMK A01 T01520009  RH  038%=      5-min Rain = 0
KRO1 240358Z 20009KT 15/01 A30 RMK A01 T01520009  RH  038%=      5-min Rain = 0
KRO1 240359Z 20009KT 15/01 A30 RMK A01 T01520010  RH  038%=      5-min Rain = 0
KRO1 240400Z 20009KT 15/01 A30 RMK A01 T01510010  RH  038%=      5-min Rain = 0
KRO1 240401Z 20010KT 15/01 A30 RMK A01 T01510010  RH  038%=      5-min Rain = 0
KRO1 240402Z 20010KT 15/01 A30 RMK A01 T01510010  RH  038%=      5-min Rain = 0
KRO1 240403Z 20010KT 15/01 A30 RMK A01 T01510010  RH  038%=      5-min Rain = 0
KRO1 240404Z 19010KT 15/01 A30 RMK A01 T01510011  RH  039%=      5-min Rain = 0
KRO1 240405Z 19010KT 15/01 A30 RMK A01 T01500010  RH  039%=      5-min Rain = 0
KRO1 240406Z 19011KT 15/01 A30 RMK A01 T01500011  RH  039%=      5-min Rain = 0
KRO1 240407Z 19011KT 15/01 A30 RMK A01 T01500011  RH  039%=      5-min Rain = 0
KRO1 240408Z 19011KT 15/01 A30 RMK A01 T01490010  RH  039%=      5-min Rain = 0
KRO1 240409Z 19010KT 15/01 A30 RMK A01 T01490011  RH  039%=      5-min Rain = 0
KRO1 240410Z 19010KT 15/01 A30 RMK A01 T01490011  RH  039%=      5-min Rain = 0
KRO1 240411Z 19010KT 15/01 A30 RMK A01 T01480010  RH  039%=      5-min Rain = 0
KRO1 240412Z 19010KT 15/01 A30 RMK A01 T01470010  RH  039%=      5-min Rain = 0
KRO1 240413Z 19009KT 15/01 A30 RMK A01 T01460010  RH  040%=      5-min Rain = 0
KRO1 240414Z 20009KT 15/01 A30 RMK A01 T01450011  RH  040%=      5-min Rain = 0
KRO1 240415Z 20009KT 15/01 A30 RMK A01 T01450011  RH  040%=      5-min Rain = 0
KRO1 240416Z 20009KT 14/01 A30 RMK A01 T01440011  RH  040%=      5-min Rain = 0
KRO1 240417Z 20009KT 14/01 A30 RMK A01 T01440011  RH  040%=      5-min Rain = 0
KRO1 240418Z 20009KT 14/01 A30 RMK A01 T01430010  RH  040%=      5-min Rain = 0
KRO1 240419Z 20009KT 14/01 A30 RMK A01 T01430010  RH  040%=      5-min Rain = 0
KRO1 240420Z 20009KT 14/01 A30 RMK A01 T01430010  RH  040%=      5-min Rain = 0
KRO1 240421Z 20009KT 14/01 A30 RMK A01 T01430011  RH  041%=      5-min Rain = 0
KRO1 240422Z 20009KT 14/01 A30 RMK A01 T01430011  RH  041%=      5-min Rain = 0
KRO1 240423Z 20009KT 14/01 A30 RMK A01 T01430011  RH  041%=      5-min Rain = 0
KRO1 240424Z 20009KT 14/01 A30 RMK A01 T01430011  RH  041%=      5-min Rain = 0
KRO1 240425Z 20009KT 14/01 A30 RMK A01 T01430011  RH  041%=      5-min Rain = 0
KRO1 240426Z 20010KT 14/01 A30 RMK A01 T01430011  RH  041%=      5-min Rain = 0
KRO1 240427Z 20010KT 14/01 A30 RMK A01 T01430011  RH  041%=      5-min Rain = 0
KRO1 240428Z 20009KT 14/01 A30 RMK A01 T01430011  RH  041%=      5-min Rain = 0
KRO1 240429Z 20009KT 14/01 A30 RMK A01 T01430010  RH  040%=      5-min Rain = 0
KRO1 240430Z 20009KT 14/01 A30 RMK A01 T01430010  RH  040%=      5-min Rain = 0
KRO1 240431Z 20009KT 14/01 A30 RMK A01 T01440009  RH  040%=      5-min Rain = 0
KRO1 240432Z 20009KT 14/01 A2999 RMK A01 T01440009  RH  040%=      5-min Rain = 0
KRO1 240433Z 20009KT 14/01 A30 RMK A01 T01440009  RH  040%=      5-min Rain = 0
KRO1 240434Z 20009KT 15/01 A30 RMK A01 T01450009  RH  040%=      5-min Rain = 0
KRO1 240435Z 20008KT 15/01 A30 RMK A01 T01450009  RH  040%=      5-min Rain = 0
KRO1 240436Z 20007KT 14/01 A30 RMK A01 T01440010  RH  040%=      5-min Rain = 0
KRO1 240437Z 20007KT 14/01 A2999 RMK A01 T01420010  RH  041%=      5-min Rain = 0
KRO1 240438Z 20008KT 14/01 A2999 RMK A01 T01410010  RH  041%=      5-min Rain = 0
KRO1 240439Z 20009KT 14/01 A30 RMK A01 T01410010  RH  041%=      5-min Rain = 0
KRO1 240440Z 20009KT 14/01 A30 RMK A01 T01400010  RH  041%=      5-min Rain = 0
KRO1 240441Z 20009KT 14/01 A30 RMK A01 T01400009  RH  041%=      5-min Rain = 0
KRO1 240442Z 19010KT 14/01 A2999 RMK A01 T01410008  RH  040%=      5-min Rain = 0
KRO1 240443Z 19009KT 14/01 A2999 RMK A01 T01430008  RH  040%=      5-min Rain = 0
KRO1 240444Z 19009KT 15/01 A2999 RMK A01 T01450008  RH  039%=      5-min Rain = 0
KRO1 240445Z 20010KT 15/01 A2999 RMK A01 T01460007  RH  039%=      5-min Rain = 0
KRO1 240446Z 20010KT 15/01 A2999 RMK A01 T01460007  RH  039%=      5-min Rain = 0
KRO1 240447Z 20009KT 15/01 A30 RMK A01 T01460008  RH  039%=      5-min Rain = 0
KRO1 240448Z 20008KT 14/01 A30 RMK A01 T01440009  RH  040%=      5-min Rain = 0
KRO1 240449Z 20009KT 14/01 A30 RMK A01 T01410009  RH  041%=      5-min Rain = 0
KRO1 240450Z 20010KT 14/01 A2999 RMK A01 T01390010  RH  042%=      5-min Rain = 0
KRO1 240451Z 20010KT 14/01 A2999 RMK A01 T01380010  RH  042%=      5-min Rain = 0
KRO1 240452Z 20010KT 14/01 A2999 RMK A01 T01380009  RH  041%=      5-min Rain = 0
KRO1 240453Z 20010KT 14/01 A2999 RMK A01 T01400008  RH  041%=      5-min Rain = 0
KRO1 240454Z 20010KT 14/01 A2999 RMK A01 T01420008  RH  040%=      5-min Rain = 0
KRO1 240455Z 20010KT 14/01 A30 RMK A01 T01440008  RH  040%=      5-min Rain = 0
KRO1 240456Z 20010KT 14/01 A30 RMK A01 T01440008  RH  039%=      5-min Rain = 0
KRO1 240457Z 20010KT 15/01 A30 RMK A01 T01450007  RH  039%=      5-min Rain = 0
KRO1 240458Z 20010KT 15/01 A30 RMK A01 T01450007  RH  039%=      5-min Rain = 0
KRO1 240459Z 20010KT 15/01 A30 RMK A01 T01450007  RH  039%=      5-min Rain = 0

Page generated in 0.0325 seconds.